| time (UTC) | temp C | wind direction | speed KPH | gust KPH | rain 1hr cm | rain 24hr cm | rain mn cm | humidity % | barometer mb |
| 20260504024617 | 20 | 159 | 3.2 | 11.3 | 0.00 | 0.00 | 0.00 | 60 | 1016.3 |
| 20260504024517 | 20 | 169 | 6.4 | 11.3 | 0.00 | 0.00 | 0.00 | 60 | 1016.4 |
| 20260504024416 | 20 | 169 | 6.4 | 11.3 | 0.00 | 0.00 | 0.00 | 60 | 1016.4 |
| 20260504024317 | 20 | 169 | 6.4 | 11.3 | 0.00 | 0.00 | 0.00 | 60 | 1016.4 |
| 20260504024215 | 20 | 200 | 6.4 | 14.5 | 0.00 | 0.00 | 0.00 | 60 | 1016.4 |
| 20260504024117 | 20 | 154 | 6.4 | 14.5 | 0.00 | 0.00 | 0.00 | 60 | 1016.4 |
| 20260504024018 | 20 | 116 | 6.4 | 14.5 | 0.00 | 0.00 | 0.00 | 59 | 1016.4 |
| 20260504023916 | 20 | 164 | 6.4 | 16.1 | 0.00 | 0.00 | 0.00 | 59 | 1016.5 |
| 20260504023816 | 20 | 168 | 4.8 | 16.1 | 0.00 | 0.00 | 0.00 | 59 | 1016.5 |
| 20260504023715 | 20 | 128 | 4.8 | 16.1 | 0.00 | 0.00 | 0.00 | 59 | 1016.5 |
| 20260504023616 | 20 | 140 | 6.4 | 16.1 | 0.00 | 0.00 | 0.00 | 59 | 1016.5 |
| 20260504023516 | 21 | 151 | 4.8 | 16.1 | 0.00 | 0.00 | 0.00 | 59 | 1016.4 |
| 20260504023417 | 21 | 159 | 6.4 | 16.1 | 0.00 | 0.00 | 0.00 | 59 | 1016.6 |
| 20260504023315 | 21 | 182 | 8.0 | 16.1 | 0.00 | 0.00 | 0.00 | 58 | 1016.4 |
| 20260504023217 | 21 | 193 | 6.4 | 16.1 | 0.00 | 0.00 | 0.00 | 58 | 1016.5 |
| 20260504023115 | 21 | 196 | 8.0 | 16.1 | 0.00 | 0.00 | 0.00 | 58 | 1016.5 |
| 20260504023015 | 21 | 186 | 6.4 | 16.1 | 0.00 | 0.00 | 0.00 | 58 | 1016.4 |
| 20260504022917 | 21 | 192 | 6.4 | 16.1 | 0.00 | 0.00 | 0.00 | 58 | 1016.5 |
| 20260504022817 | 21 | 168 | 8.0 | 16.1 | 0.00 | 0.00 | 0.00 | 58 | 1016.4 |
| 20260504022715 | 21 | 141 | 6.4 | 16.1 | 0.00 | 0.00 | 0.00 | 58 | 1016.4 |
| 20260504022616 | 21 | 151 | 8.0 | 16.1 | 0.00 | 0.00 | 0.00 | 58 | 1016.4 |
| 20260504022518 | 21 | 144 | 8.0 | 16.1 | 0.00 | 0.00 | 0.00 | 58 | 1016.4 |
| 20260504022417 | 21 | 199 | 8.0 | 16.1 | 0.00 | 0.00 | 0.00 | 58 | 1016.4 |
| 20260504022316 | 21 | 158 | 8.0 | 16.1 | 0.00 | 0.00 | 0.00 | 58 | 1016.4 |
| 20260504022216 | 21 | 148 | 8.0 | 16.1 | 0.00 | 0.00 | 0.00 | 58 | 1016.4 |
| 20260504022116 | 21 | 207 | 6.4 | 16.1 | 0.00 | 0.00 | 0.00 | 58 | 1016.3 |
| 20260504022015 | 21 | 169 | 6.4 | 16.1 | 0.00 | 0.00 | 0.00 | 58 | 1016.2 |
| 20260504021915 | 21 | 199 | 6.4 | 16.1 | 0.00 | 0.00 | 0.00 | 58 | 1016.2 |
| 20260504021817 | 21 | 155 | 8.0 | 24.1 | 0.00 | 0.00 | 0.00 | 58 | 1016.2 |
| 20260504021717 | 21 | 172 | 8.0 | 24.1 | 0.00 | 0.00 | 0.00 | 58 | 1016.2 |
| 20260504021615 | 21 | 165 | 6.4 | 24.1 | 0.00 | 0.00 | 0.00 | 58 | 1016.2 |
| 20260504021516 | 21 | 138 | 6.4 | 24.1 | 0.00 | 0.00 | 0.00 | 57 | 1016.3 |
| 20260504021416 | 21 | 107 | 8.0 | 24.1 | 0.00 | 0.00 | 0.00 | 57 | 1016.2 |
| 20260504021316 | 21 | 140 | 6.4 | 24.1 | 0.00 | 0.00 | 0.00 | 57 | 1016.2 |
| 20260504021217 | 21 | 137 | 4.8 | 24.1 | 0.00 | 0.00 | 0.00 | 57 | 1016.3 |
| 20260504021115 | 21 | 113 | 6.4 | 24.1 | 0.00 | 0.00 | 0.00 | 57 | 1016.3 |
| 20260504021015 | 21 | 168 | 8.0 | 24.1 | 0.00 | 0.00 | 0.00 | 57 | 1016.2 |
| 20260504020914 | 21 | 138 | 9.7 | 24.1 | 0.00 | 0.00 | 0.00 | 57 | 1016.2 |
| 20260504020816 | 21 | 133 | 8.0 | 20.9 | 0.00 | 0.00 | 0.00 | 57 | 1016.2 |
| 20260504020715 | 21 | 199 | 6.4 | 20.9 | 0.00 | 0.00 | 0.00 | 57 | 1016.2 |
| 20260504020615 | 21 | 148 | 8.0 | 20.9 | 0.00 | 0.00 | 0.00 | 56 | 1016.2 |
| 20260504020516 | 21 | 168 | 9.7 | 20.9 | 0.00 | 0.00 | 0.00 | 56 | 1016.2 |
| 20260504020416 | 21 | 124 | 9.7 | 20.9 | 0.00 | 0.00 | 0.00 | 56 | 1016.2 |
| 20260504020315 | 21 | 159 | 8.0 | 20.9 | 0.00 | 0.00 | 0.00 | 56 | 1016.1 |
| 20260504020215 | 21 | 92 | 9.7 | 20.9 | 0.00 | 0.00 | 0.00 | 56 | 1016.1 |
| 20260504020116 | 21 | 180 | 12.9 | 20.9 | 0.00 | 0.00 | 0.00 | 56 | 1016.1 |
| 20260504020017 | 21 | 140 | 11.3 | 20.9 | 0.00 | 0.00 | 0.00 | 56 | 1016.1 |
| 20260504015914 | 21 | 155 | 8.0 | 16.1 | 0.00 | 0.00 | 0.00 | 56 | 1016.1 |
| 20260504015814 | 21 | 157 | 8.0 | 14.5 | 0.00 | 0.00 | 0.00 | 56 | 1016.1 |
| 20260504015711 | 21 | 124 | 6.4 | 14.5 | 0.00 | 0.00 | 0.00 | 56 | 1016.1 |
| 20260504015609 | 21 | 161 | 4.8 | 14.5 | 0.00 | 0.00 | 0.00 | 57 | 1016.1 |
| 20260504015509 | 21 | 197 | 6.4 | 14.5 | 0.00 | 0.00 | 0.00 | 57 | 1016.2 |
| 20260504015407 | 21 | 144 | 6.4 | 14.5 | 0.00 | 0.00 | 0.00 | 56 | 1016.2 |
| 20260504015308 | 21 | 162 | 6.4 | 14.5 | 0.00 | 0.00 | 0.00 | 56 | 1016.1 |
| 20260504015206 | 21 | 130 | 4.8 | 14.5 | 0.00 | 0.00 | 0.00 | 56 | 1016.1 |
| 20260504015105 | 21 | 141 | 4.8 | 14.5 | 0.00 | 0.00 | 0.00 | 56 | 1016.2 |
| 20260504015004 | 21 | 175 | 4.8 | 14.5 | 0.00 | 0.00 | 0.00 | 56 | 1016.1 |
| 20260504014903 | 21 | 164 | 4.8 | 14.5 | 0.00 | 0.00 | 0.00 | 56 | 1016.2 |
| 20260504014802 | 21 | 130 | 6.4 | 11.3 | 0.00 | 0.00 | 0.00 | 56 | 1016.2 |
| 20260504014702 | 21 | 149 | 6.4 | 11.3 | 0.00 | 0.00 | 0.00 | 56 | 1016.1 |
| 20260504014603 | 21 | 157 | 4.8 | 14.5 | 0.00 | 0.00 | 0.00 | 56 | 1016.1 |
| 20260504014503 | 21 | 138 | 4.8 | 14.5 | 0.00 | 0.00 | 0.00 | 56 | 1016.1 |
| 20260504014402 | 21 | 159 | 4.8 | 14.5 | 0.00 | 0.00 | 0.00 | 56 | 1016.2 |
| 20260504014301 | 21 | 158 | 4.8 | 14.5 | 0.00 | 0.00 | 0.00 | 56 | 1016.1 |
| 20260504014203 | 21 | 176 | 4.8 | 14.5 | 0.00 | 0.00 | 0.00 | 55 | 1016.1 |
| 20260504014102 | 21 | 113 | 4.8 | 14.5 | 0.00 | 0.00 | 0.00 | 55 | 1016.1 |
| 20260504014002 | 21 | 192 | 6.4 | 14.5 | 0.00 | 0.00 | 0.00 | 55 | 1016.1 |
| 20260504013903 | 21 | 158 | 6.4 | 14.5 | 0.00 | 0.00 | 0.00 | 55 | 1016.1 |
| 20260504013802 | 21 | 140 | 6.4 | 14.5 | 0.00 | 0.00 | 0.00 | 55 | 1016.1 |
| 20260504013702 | 21 | 155 | 8.0 | 14.5 | 0.00 | 0.00 | 0.00 | 55 | 1016.0 |
| 20260504013602 | 21 | 173 | 8.0 | 14.5 | 0.00 | 0.00 | 0.00 | 55 | 1015.9 |
| 20260504013503 | 21 | 152 | 4.8 | 14.5 | 0.00 | 0.00 | 0.00 | 56 | 1016.0 |
| 20260504013403 | 21 | 142 | 3.2 | 14.5 | 0.00 | 0.00 | 0.00 | 55 | 1015.9 |
| 20260504013302 | 21 | 118 | 4.8 | 14.5 | 0.00 | 0.00 | 0.00 | 55 | 1015.9 |
| 20260504013202 | 21 | 141 | 4.8 | 14.5 | 0.00 | 0.00 | 0.00 | 55 | 1015.9 |
| 20260504013103 | 21 | 227 | 6.4 | 14.5 | 0.00 | 0.00 | 0.00 | 55 | 1015.8 |
| 20260504013002 | 21 | 147 | 6.4 | 14.5 | 0.00 | 0.00 | 0.00 | 55 | 1015.9 |
| 20260504012903 | 22 | 137 | 4.8 | 14.5 | 0.00 | 0.00 | 0.00 | 54 | 1015.9 |
| 20260504012802 | 22 | 148 | 6.4 | 14.5 | 0.00 | 0.00 | 0.00 | 54 | 1015.9 |
| 20260504012702 | 22 | 147 | 6.4 | 14.5 | 0.00 | 0.00 | 0.00 | 54 | 1015.8 |
| 20260504012603 | 22 | 172 | 4.8 | 14.5 | 0.00 | 0.00 | 0.00 | 54 | 1015.9 |
| 20260504012504 | 22 | 189 | 6.4 | 16.1 | 0.00 | 0.00 | 0.00 | 54 | 1015.8 |
| 20260504012402 | 22 | 195 | 6.4 | 16.1 | 0.00 | 0.00 | 0.00 | 54 | 1015.9 |
| 20260504012304 | 22 | 134 | 8.0 | 16.1 | 0.00 | 0.00 | 0.00 | 54 | 1015.8 |
| 20260504012204 | 22 | 168 | 8.0 | 16.1 | 0.00 | 0.00 | 0.00 | 54 | 1015.9 |
| 20260504012103 | 22 | 130 | 6.4 | 16.1 | 0.00 | 0.00 | 0.00 | 54 | 1015.9 |
| 20260504012004 | 22 | 169 | 6.4 | 16.1 | 0.00 | 0.00 | 0.00 | 54 | 1015.9 |
| 20260504011903 | 22 | 175 | 6.4 | 16.1 | 0.00 | 0.00 | 0.00 | 54 | 1015.8 |
| 20260504011803 | 22 | 83 | 4.8 | 17.7 | 0.00 | 0.00 | 0.00 | 54 | 1015.9 |
| 20260504011702 | 22 | 148 | 6.4 | 17.7 | 0.00 | 0.00 | 0.00 | 54 | 1015.8 |
| 20260504011603 | 22 | 159 | 6.4 | 17.7 | 0.00 | 0.00 | 0.00 | 54 | 1015.8 |
| 20260504011504 | 22 | 176 | 6.4 | 17.7 | 0.00 | 0.00 | 0.00 | 54 | 1015.9 |
| 20260504011402 | 22 | 206 | 4.8 | 17.7 | 0.00 | 0.00 | 0.00 | 54 | 1015.9 |
| 20260504011303 | 22 | 124 | 4.8 | 17.7 | 0.00 | 0.00 | 0.00 | 54 | 1015.9 |
| 20260504011203 | 22 | 172 | 4.8 | 17.7 | 0.00 | 0.00 | 0.00 | 54 | 1015.9 |
| 20260504011102 | 22 | 175 | 4.8 | 17.7 | 0.00 | 0.00 | 0.00 | 54 | 1015.9 |
| 20260504011003 | 22 | 199 | 8.0 | 17.7 | 0.00 | 0.00 | 0.00 | 54 | 1015.9 |
| 20260504010903 | 22 | 164 | 8.0 | 17.7 | 0.00 | 0.00 | 0.00 | 53 | 1015.8 |
| 20260504010804 | 22 | 171 | 6.4 | 16.1 | 0.00 | 0.00 | 0.00 | 54 | 1015.8 |
| 20260504010702 | 22 | 172 | 6.4 | 16.1 | 0.00 | 0.00 | 0.00 | 54 | 1015.8 |
| 20260504010602 | 22 | 152 | 4.8 | 16.1 | 0.00 | 0.00 | 0.00 | 53 | 1015.8 |
| 20260504010503 | 22 | 166 | 6.4 | 16.1 | 0.00 | 0.00 | 0.00 | 53 | 1015.7 |
| 20260504010402 | 22 | 147 | 6.4 | 16.1 | 0.00 | 0.00 | 0.00 | 53 | 1015.8 |
| 20260504010302 | 22 | 161 | 6.4 | 16.1 | 0.00 | 0.00 | 0.00 | 53 | 1015.8 |
| 20260504010202 | 22 | 166 | 4.8 | 16.1 | 0.00 | 0.00 | 0.00 | 53 | 1015.8 |
| 20260504010003 | 22 | 117 | 8.0 | 16.1 | 0.00 | 0.00 | 0.00 | 52 | 1015.8 |
| 20260504005904 | 22 | 145 | 6.4 | 16.1 | 0.00 | 0.00 | 0.00 | 53 | 1015.8 |
| 20260504005803 | 22 | 206 | 3.2 | 11.3 | 0.00 | 0.00 | 0.00 | 52 | 1015.9 |
| 20260504005702 | 22 | 107 | 3.2 | 11.3 | 0.00 | 0.00 | 0.00 | 52 | 1015.8 |
| 20260504005602 | 22 | 158 | 4.8 | 11.3 | 0.00 | 0.00 | 0.00 | 52 | 1015.9 |
| 20260504005504 | 22 | 141 | 4.8 | 11.3 | 0.00 | 0.00 | 0.00 | 52 | 1015.8 |
| 20260504005403 | 22 | 68 | 3.2 | 19.3 | 0.00 | 0.00 | 0.00 | 51 | 1015.8 |
| 20260504005304 | 22 | 121 | 3.2 | 19.3 | 0.00 | 0.00 | 0.00 | 52 | 1015.8 |
| 20260504005202 | 22 | 92 | 3.2 | 19.3 | 0.00 | 0.00 | 0.00 | 52 | 1015.9 |
| 20260504005104 | 22 | 134 | 6.4 | 19.3 | 0.00 | 0.00 | 0.00 | 51 | 1015.8 |
| 20260504005002 | 22 | 99 | 8.0 | 19.3 | 0.00 | 0.00 | 0.00 | 51 | 1015.8 |
| 20260504004903 | 22 | 76 | 8.0 | 19.3 | 0.00 | 0.00 | 0.00 | 51 | 1015.8 |
| 20260504004803 | 22 | 140 | 6.4 | 19.3 | 0.00 | 0.00 | 0.00 | 51 | 1015.7 |
| 20260504004703 | 22 | 113 | 6.4 | 19.3 | 0.00 | 0.00 | 0.00 | 51 | 1015.7 |
| 20260504004603 | 23 | 131 | 9.7 | 19.3 | 0.00 | 0.00 | 0.00 | 51 | 1015.8 |
| 20260504004502 | 23 | 117 | 14.5 | 19.3 | 0.00 | 0.00 | 0.00 | 51 | 1015.8 |
| 20260504004403 | 23 | 111 | 12.9 | 19.3 | 0.00 | 0.00 | 0.00 | 51 | 1015.8 |
| 20260504004303 | 23 | 110 | 9.7 | 19.3 | 0.00 | 0.00 | 0.00 | 51 | 1015.8 |
| 20260504004202 | 23 | 123 | 9.7 | 16.1 | 0.00 | 0.00 | 0.00 | 51 | 1015.8 |
| 20260504004103 | 23 | 39 | 8.0 | 16.1 | 0.00 | 0.00 | 0.00 | 51 | 1015.9 |
| 20260504004003 | 23 | 35 | 8.0 | 16.1 | 0.00 | 0.00 | 0.00 | 51 | 1015.8 |
| 20260504003902 | 23 | 45 | 9.7 | 17.7 | 0.00 | 0.00 | 0.00 | 51 | 1015.9 |
| 20260504003803 | 23 | 55 | 11.3 | 17.7 | 0.00 | 0.00 | 0.00 | 51 | 1015.9 |
| 20260504003703 | 23 | 58 | 11.3 | 17.7 | 0.00 | 0.00 | 0.00 | 51 | 1015.9 |
| 20260504003603 | 23 | 59 | 9.7 | 17.7 | 0.00 | 0.00 | 0.00 | 50 | 1015.9 |
| 20260504003503 | 23 | 66 | 9.7 | 17.7 | 0.00 | 0.00 | 0.00 | 50 | 1015.9 |
| 20260504003403 | 23 | 100 | 11.3 | 17.7 | 0.00 | 0.00 | 0.00 | 50 | 1015.9 |
| 20260504003302 | 23 | 72 | 11.3 | 17.7 | 0.00 | 0.00 | 0.00 | 50 | 1015.9 |
| 20260504003203 | 23 | 55 | 11.3 | 17.7 | 0.00 | 0.00 | 0.00 | 50 | 1015.9 |
| 20260504003103 | 23 | 76 | 11.3 | 17.7 | 0.00 | 0.00 | 0.00 | 50 | 1015.9 |
| 20260504003003 | 23 | 71 | 11.3 | 17.7 | 0.00 | 0.00 | 0.00 | 50 | 1015.9 |
| 20260504002902 | 23 | 73 | 11.3 | 17.7 | 0.00 | 0.00 | 0.00 | 50 | 1015.8 |
| 20260504002802 | 23 | 75 | 9.7 | 17.7 | 0.00 | 0.00 | 0.00 | 50 | 1015.9 |
| 20260504002704 | 23 | 80 | 9.7 | 17.7 | 0.00 | 0.00 | 0.00 | 50 | 1015.9 |
| 20260504002602 | 23 | 73 | 9.7 | 17.7 | 0.00 | 0.00 | 0.00 | 50 | 1015.8 |
| 20260504002503 | 23 | 47 | 6.4 | 17.7 | 0.00 | 0.00 | 0.00 | 49 | 1015.8 |
| 20260504002403 | 23 | 48 | 8.0 | 17.7 | 0.00 | 0.00 | 0.00 | 49 | 1015.7 |
| 20260504002303 | 23 | 79 | 11.3 | 17.7 | 0.00 | 0.00 | 0.00 | 49 | 1015.7 |
| 20260504002203 | 23 | 59 | 9.7 | 17.7 | 0.00 | 0.00 | 0.00 | 49 | 1015.7 |
| 20260504002103 | 23 | 55 | 9.7 | 17.7 | 0.00 | 0.00 | 0.00 | 49 | 1015.7 |
| 20260504002002 | 23 | 133 | 12.9 | 19.3 | 0.00 | 0.00 | 0.00 | 48 | 1015.7 |
| 20260504001902 | 23 | 103 | 12.9 | 20.9 | 0.00 | 0.00 | 0.00 | 48 | 1015.8 |
| 20260504001801 | 23 | 102 | 12.9 | 20.9 | 0.00 | 0.00 | 0.00 | 48 | 1015.7 |
| 20260504001703 | 23 | 97 | 11.3 | 20.9 | 0.00 | 0.00 | 0.00 | 48 | 1015.8 |
| 20260504001602 | 23 | 113 | 11.3 | 20.9 | 0.00 | 0.00 | 0.00 | 48 | 1015.8 |
| 20260504001503 | 23 | 97 | 11.3 | 20.9 | 0.00 | 0.00 | 0.00 | 48 | 1015.9 |
| 20260504001403 | 23 | 117 | 11.3 | 20.9 | 0.00 | 0.00 | 0.00 | 48 | 1015.9 |
| 20260504001303 | 23 | 111 | 11.3 | 20.9 | 0.00 | 0.00 | 0.00 | 48 | 1015.8 |
| 20260504001203 | 23 | 97 | 12.9 | 20.9 | 0.00 | 0.00 | 0.00 | 48 | 1015.8 |
| 20260504001102 | 23 | 106 | 14.5 | 22.5 | 0.00 | 0.00 | 0.00 | 47 | 1015.8 |
| 20260504001004 | 24 | 93 | 14.5 | 22.5 | 0.00 | 0.00 | 0.00 | 47 | 1015.7 |
| 20260504000902 | 24 | 96 | 12.9 | 22.5 | 0.00 | 0.00 | 0.00 | 47 | 1015.9 |
| 20260504000802 | 24 | 93 | 12.9 | 22.5 | 0.00 | 0.00 | 0.00 | 47 | 1015.9 |
| 20260504000704 | 24 | 100 | 11.3 | 22.5 | 0.00 | 0.00 | 0.00 | 47 | 1015.9 |
| 20260504000603 | 24 | 109 | 12.9 | 22.5 | 0.00 | 0.00 | 0.00 | 47 | 1015.9 |
| 20260504000504 | 24 | 96 | 14.5 | 22.5 | 0.00 | 0.00 | 0.00 | 47 | 1016.0 |
| 20260504000403 | 24 | 100 | 14.5 | 22.5 | 0.00 | 0.00 | 0.00 | 47 | 1015.9 |
| 20260504000303 | 24 | 110 | 16.1 | 22.5 | 0.00 | 0.00 | 0.00 | 47 | 1016.0 |
| 20260504000201 | 24 | 86 | 16.1 | 22.5 | 0.00 | 0.00 | 0.00 | 47 | 1015.9 |
| 20260504000005 | 24 | 113 | 11.3 | 22.5 | 0.00 | 0.00 | 0.00 | 47 | 1016.0 |
| 20260503235902 | 24 | 117 | 12.9 | 22.5 | 0.00 | 0.00 | 0.00 | 46 | 1015.9 |
| 20260503235801 | 24 | 123 | 12.9 | 22.5 | 0.00 | 0.00 | 0.00 | 47 | 1015.9 |
| 20260503235703 | 24 | 116 | 12.9 | 22.5 | 0.00 | 0.00 | 0.00 | 46 | 1016.0 |
| 20260503235603 | 24 | 106 | 12.9 | 22.5 | 0.00 | 0.00 | 0.00 | 46 | 1016.0 |
| 20260503235502 | 24 | 89 | 11.3 | 20.9 | 0.00 | 0.00 | 0.00 | 46 | 1015.9 |
| 20260503235403 | 25 | 80 | 9.7 | 20.9 | 0.00 | 0.00 | 0.00 | 46 | 1015.9 |
| 20260503235304 | 25 | 86 | 9.7 | 20.9 | 0.00 | 0.00 | 0.00 | 46 | 1016.0 |
| 20260503235202 | 25 | 109 | 8.0 | 20.9 | 0.00 | 0.00 | 0.00 | 46 | 1015.9 |
| 20260503235103 | 25 | 73 | 9.7 | 20.9 | 0.00 | 0.00 | 0.00 | 46 | 1015.9 |
| 20260503235005 | 25 | 141 | 9.7 | 20.9 | 0.00 | 0.00 | 0.00 | 47 | 1015.9 |
| 20260503234902 | 25 | 82 | 8.0 | 20.9 | 0.00 | 0.00 | 0.00 | 46 | 1016.0 |
| 20260503234802 | 24 | 103 | 11.3 | 20.9 | 0.00 | 0.00 | 0.00 | 46 | 1015.9 |
| 20260503234702 | 25 | 123 | 12.9 | 20.9 | 0.00 | 0.00 | 0.00 | 46 | 1016.0 |
| 20260503234603 | 25 | 103 | 12.9 | 20.9 | 0.00 | 0.00 | 0.00 | 46 | 1015.9 |
| 20260503234502 | 25 | 104 | 14.5 | 20.9 | 0.00 | 0.00 | 0.00 | 46 | 1016.0 |
| 20260503234402 | 25 | 99 | 11.3 | 19.3 | 0.00 | 0.00 | 0.00 | 46 | 1016.0 |
| 20260503234303 | 25 | 111 | 8.0 | 19.3 | 0.00 | 0.00 | 0.00 | 46 | 1016.0 |
| 20260503234202 | 25 | 152 | 6.4 | 19.3 | 0.00 | 0.00 | 0.00 | 46 | 1016.1 |
| 20260503234102 | 25 | 94 | 6.4 | 19.3 | 0.00 | 0.00 | 0.00 | 46 | 1016.0 |
| 20260503234002 | 25 | 124 | 9.7 | 19.3 | 0.00 | 0.00 | 0.00 | 46 | 1016.0 |
| 20260503233902 | 25 | 141 | 11.3 | 19.3 | 0.00 | 0.00 | 0.00 | 45 | 1016.0 |
| 20260503233802 | 25 | 104 | 11.3 | 19.3 | 0.00 | 0.00 | 0.00 | 45 | 1016.1 |
| 20260503233702 | 25 | 85 | 12.9 | 19.3 | 0.00 | 0.00 | 0.00 | 45 | 1016.0 |
| 20260503233602 | 25 | 96 | 14.5 | 24.1 | 0.00 | 0.00 | 0.00 | 45 | 1016.0 |
| 20260503233504 | 25 | 92 | 11.3 | 24.1 | 0.00 | 0.00 | 0.00 | 45 | 1016.1 |
| 20260503233402 | 25 | 102 | 9.7 | 24.1 | 0.00 | 0.00 | 0.00 | 45 | 1016.1 |
| 20260503233302 | 25 | 120 | 9.7 | 24.1 | 0.00 | 0.00 | 0.00 | 43 | 1016.1 |
| 20260503233203 | 25 | 107 | 9.7 | 24.1 | 0.00 | 0.00 | 0.00 | 43 | 1016.0 |
| 20260503233102 | 25 | 110 | 9.7 | 24.1 | 0.00 | 0.00 | 0.00 | 43 | 1016.0 |
| 20260503233002 | 25 | 85 | 9.7 | 24.1 | 0.00 | 0.00 | 0.00 | 43 | 1016.1 |
| 20260503232903 | 25 | 96 | 9.7 | 24.1 | 0.00 | 0.00 | 0.00 | 43 | 1016.1 |
| 20260503232802 | 25 | 78 | 12.9 | 24.1 | 0.00 | 0.00 | 0.00 | 43 | 1016.1 |
| 20260503232702 | 25 | 106 | 14.5 | 24.1 | 0.00 | 0.00 | 0.00 | 43 | 1016.1 |
| 20260503232603 | 25 | 94 | 11.3 | 17.7 | 0.00 | 0.00 | 0.00 | 44 | 1016.2 |
| 20260503232502 | 25 | 87 | 11.3 | 17.7 | 0.00 | 0.00 | 0.00 | 43 | 1016.1 |
| 20260503232402 | 25 | 93 | 11.3 | 17.7 | 0.00 | 0.00 | 0.00 | 43 | 1016.1 |
| 20260503232305 | 25 | 102 | 9.7 | 16.1 | 0.00 | 0.00 | 0.00 | 43 | 1016.1 |
| 20260503232204 | 25 | 80 | 9.7 | 16.1 | 0.00 | 0.00 | 0.00 | 43 | 1016.1 |
| 20260503232101 | 25 | 97 | 9.7 | 16.1 | 0.00 | 0.00 | 0.00 | 43 | 1016.1 |
| 20260503231959 | 25 | 109 | 8.0 | 16.1 | 0.00 | 0.00 | 0.00 | 44 | 1016.2 |
| 20260503231858 | 25 | 113 | 6.4 | 16.1 | 0.00 | 0.00 | 0.00 | 44 | 1016.0 |
| 20260503231756 | 25 | 152 | 4.8 | 16.1 | 0.00 | 0.00 | 0.00 | 44 | 1016.1 |
| 20260503231655 | 25 | 99 | 4.8 | 17.7 | 0.00 | 0.00 | 0.00 | 44 | 1016.0 |
| 20260503231555 | 25 | 200 | 6.4 | 17.7 | 0.00 | 0.00 | 0.00 | 43 | 1016.1 |
| 20260503231451 | 25 | 111 | 9.7 | 17.7 | 0.00 | 0.00 | 0.00 | 42 | 1016.0 |
| 20260503231350 | 25 | 117 | 8.0 | 17.7 | 0.00 | 0.00 | 0.00 | 43 | 1016.0 |
| 20260503231249 | 25 | 106 | 6.4 | 17.7 | 0.00 | 0.00 | 0.00 | 44 | 1016.1 |
| 20260503231148 | 25 | 164 | 6.4 | 17.7 | 0.00 | 0.00 | 0.00 | 43 | 1016.1 |
| 20260503231047 | 25 | 180 | 6.4 | 17.7 | 0.00 | 0.00 | 0.00 | 43 | 1016.1 |
| 20260503230945 | 25 | 103 | 8.0 | 17.7 | 0.00 | 0.00 | 0.00 | 43 | 1016.1 |
| 20260503230843 | 25 | 158 | 8.0 | 17.7 | 0.00 | 0.00 | 0.00 | 43 | 1016.1 |
| 20260503230741 | 25 | 202 | 9.7 | 17.7 | 0.00 | 0.00 | 0.00 | 44 | 1016.1 |
| 20260503230640 | 25 | 102 | 9.7 | 16.1 | 0.00 | 0.00 | 0.00 | 43 | 1016.1 |
| 20260503230538 | 25 | 94 | 8.0 | 16.1 | 0.00 | 0.00 | 0.00 | 43 | 1016.1 |
| 20260503230438 | 25 | 106 | 6.4 | 16.1 | 0.00 | 0.00 | 0.00 | 43 | 1016.2 |
| 20260503230332 | 25 | 106 | 8.0 | 16.1 | 0.00 | 0.00 | 0.00 | 42 | 1016.2 |
| 20260503230231 | 25 | 110 | 11.3 | 16.1 | 0.00 | 0.00 | 0.00 | 42 | 1016.2 |
| 20260503230131 | 25 | 114 | 12.9 | 16.1 | 0.00 | 0.00 | 0.00 | 42 | 1016.2 |
| 20260503230032 | 25 | 114 | 11.3 | 19.3 | 0.00 | 0.00 | 0.00 | 42 | 1016.2 |
| 20260503225931 | 25 | 90 | 9.7 | 19.3 | 0.00 | 0.00 | 0.00 | 42 | 1016.2 |
| 20260503225831 | 25 | 114 | 9.7 | 19.3 | 0.00 | 0.00 | 0.00 | 43 | 1016.3 |
| 20260503225732 | 25 | 90 | 8.0 | 19.3 | 0.00 | 0.00 | 0.00 | 43 | 1016.2 |
| 20260503225631 | 25 | 180 | 4.8 | 19.3 | 0.00 | 0.00 | 0.00 | 43 | 1016.2 |
| 20260503225531 | 25 | 111 | 6.4 | 20.9 | 0.00 | 0.00 | 0.00 | 43 | 1016.3 |
| 20260503225433 | 25 | 114 | 6.4 | 20.9 | 0.00 | 0.00 | 0.00 | 43 | 1016.3 |
| 20260503225332 | 25 | 117 | 9.7 | 20.9 | 0.00 | 0.00 | 0.00 | 43 | 1016.2 |
| 20260503225231 | 25 | 142 | 11.3 | 20.9 | 0.00 | 0.00 | 0.00 | 43 | 1016.2 |
| 20260503225131 | 25 | 116 | 11.3 | 20.9 | 0.00 | 0.00 | 0.00 | 43 | 1016.2 |
| 20260503225031 | 25 | 93 | 11.3 | 20.9 | 0.00 | 0.00 | 0.00 | 44 | 1016.2 |
| 20260503224933 | 25 | 102 | 11.3 | 20.9 | 0.00 | 0.00 | 0.00 | 43 | 1016.2 |
| 20260503224830 | 25 | 110 | 12.9 | 20.9 | 0.00 | 0.00 | 0.00 | 42 | 1016.2 |
| 20260503224732 | 25 | 111 | 16.1 | 22.5 | 0.00 | 0.00 | 0.00 | 42 | 1016.2 |
| 20260503224632 | 25 | 124 | 17.7 | 22.5 | 0.00 | 0.00 | 0.00 | 42 | 1016.3 |
| 20260503224532 | 26 | 128 | 16.1 | 22.5 | 0.00 | 0.00 | 0.00 | 42 | 1016.3 |
| 20260503224432 | 26 | 102 | 12.9 | 22.5 | 0.00 | 0.00 | 0.00 | 42 | 1016.2 |
| 20260503224332 | 26 | 97 | 8.0 | 22.5 | 0.00 | 0.00 | 0.00 | 43 | 1016.2 |
| 20260503224230 | 26 | 135 | 6.4 | 22.5 | 0.00 | 0.00 | 0.00 | 44 | 1016.1 |
| 20260503224131 | 25 | 71 | 9.7 | 22.5 | 0.00 | 0.00 | 0.00 | 43 | 1016.2 |
| 20260503224031 | 25 | 93 | 12.9 | 22.5 | 0.00 | 0.00 | 0.00 | 42 | 1016.2 |
| 20260503223931 | 25 | 89 | 14.5 | 22.5 | 0.00 | 0.00 | 0.00 | 42 | 1016.3 |
| 20260503223831 | 25 | 102 | 12.9 | 22.5 | 0.00 | 0.00 | 0.00 | 43 | 1016.3 |
| 20260503223732 | 25 | 109 | 11.3 | 17.7 | 0.00 | 0.00 | 0.00 | 42 | 1016.3 |
| 20260503223632 | 26 | 118 | 9.7 | 17.7 | 0.00 | 0.00 | 0.00 | 41 | 1016.4 |
| 20260503223532 | 26 | 111 | 6.4 | 14.5 | 0.00 | 0.00 | 0.00 | 41 | 1016.4 |
| 20260503223431 | 26 | 123 | 8.0 | 14.5 | 0.00 | 0.00 | 0.00 | 41 | 1016.4 |
| 20260503223331 | 26 | 117 | 9.7 | 14.5 | 0.00 | 0.00 | 0.00 | 42 | 1016.4 |
| 20260503223231 | 25 | 97 | 9.7 | 14.5 | 0.00 | 0.00 | 0.00 | 42 | 1016.4 |
| 20260503223132 | 25 | 92 | 9.7 | 14.5 | 0.00 | 0.00 | 0.00 | 41 | 1016.3 |
| 20260503223032 | 25 | 124 | 9.7 | 14.5 | 0.00 | 0.00 | 0.00 | 41 | 1016.4 |
| 20260503222932 | 25 | 76 | 9.7 | 14.5 | 0.00 | 0.00 | 0.00 | 41 | 1016.3 |
| 20260503222831 | 25 | 89 | 9.7 | 14.5 | 0.00 | 0.00 | 0.00 | 42 | 1016.4 |
| 20260503222732 | 25 | 103 | 8.0 | 14.5 | 0.00 | 0.00 | 0.00 | 42 | 1016.5 |
| 20260503222631 | 25 | 89 | 8.0 | 16.1 | 0.00 | 0.00 | 0.00 | 40 | 1016.5 |
| 20260503222530 | 25 | 99 | 9.7 | 16.1 | 0.00 | 0.00 | 0.00 | 40 | 1016.6 |
| 20260503222430 | 25 | 92 | 9.7 | 17.7 | 0.00 | 0.00 | 0.00 | 40 | 1016.6 |
| 20260503222333 | 25 | 83 | 9.7 | 17.7 | 0.00 | 0.00 | 0.00 | 41 | 1016.6 |
| 20260503222230 | 25 | 114 | 8.0 | 17.7 | 0.00 | 0.00 | 0.00 | 41 | 1016.6 |
| 20260503222130 | 25 | 71 | 4.8 | 17.7 | 0.00 | 0.00 | 0.00 | 41 | 1016.7 |
| 20260503222032 | 25 | 113 | 4.8 | 17.7 | 0.00 | 0.00 | 0.00 | 41 | 1016.7 |
| 20260503221932 | 25 | 107 | 6.4 | 17.7 | 0.00 | 0.00 | 0.00 | 40 | 1016.7 |
| 20260503221831 | 25 | 99 | 9.7 | 17.7 | 0.00 | 0.00 | 0.00 | 40 | 1016.7 |
| 20260503221731 | 25 | 100 | 12.9 | 17.7 | 0.00 | 0.00 | 0.00 | 39 | 1016.6 |
| 20260503221633 | 26 | 99 | 14.5 | 17.7 | 0.00 | 0.00 | 0.00 | 39 | 1016.6 |
| 20260503221532 | 26 | 114 | 12.9 | 17.7 | 0.00 | 0.00 | 0.00 | 40 | 1016.7 |
| 20260503221431 | 26 | 94 | 9.7 | 17.7 | 0.00 | 0.00 | 0.00 | 40 | 1016.7 |
| 20260503221334 | 26 | 65 | 4.8 | 17.7 | 0.00 | 0.00 | 0.00 | 40 | 1016.7 |
| 20260503221231 | 26 | 52 | 4.8 | 17.7 | 0.00 | 0.00 | 0.00 | 39 | 1016.7 |
| 20260503221129 | 26 | 52 | 8.0 | 17.7 | 0.00 | 0.00 | 0.00 | 39 | 1016.7 |
| 20260503221026 | 26 | 80 | 9.7 | 17.7 | 0.00 | 0.00 | 0.00 | 39 | 1016.7 |
| 20260503220926 | 26 | 106 | 11.3 | 17.7 | 0.00 | 0.00 | 0.00 | 40 | 1016.6 |
| 20260503220826 | 26 | 109 | 8.0 | 17.7 | 0.00 | 0.00 | 0.00 | 40 | 1016.6 |
| 20260503220723 | 26 | 94 | 1.6 | 8.0 | 0.00 | 0.00 | 0.00 | 39 | 1016.6 |
| 20260503220622 | 26 | 58 | 1.6 | 9.7 | 0.00 | 0.00 | 0.00 | 38 | 1016.5 |
| 20260503220521 | 26 | 58 | 1.6 | 11.3 | 0.00 | 0.00 | 0.00 | 38 | 1016.5 |
| 20260503220418 | 26 | 20 | 1.6 | 11.3 | 0.00 | 0.00 | 0.00 | 38 | 1016.6 |
| 20260503220318 | 26 | 20 | 3.2 | 11.3 | 0.00 | 0.00 | 0.00 | 38 | 1016.6 |
| 20260503220216 | 26 | 62 | 3.2 | 11.3 | 0.00 | 0.00 | 0.00 | 38 | 1016.6 |
| 20260503220110 | 27 | 75 | 3.2 | 14.5 | 0.00 | 0.00 | 0.00 | 38 | 1016.6 |
| 20260503220012 | 27 | 72 | 3.2 | 16.1 | 0.00 | 0.00 | 0.00 | 38 | 1016.7 |
| 20260503215910 | 27 | 96 | 4.8 | 16.1 | 0.00 | 0.00 | 0.00 | 39 | 1016.7 |
| 20260503215810 | 26 | 200 | 4.8 | 16.1 | 0.00 | 0.00 | 0.00 | 39 | 1016.6 |
| 20260503215709 | 27 | 147 | 6.4 | 16.1 | 0.00 | 0.00 | 0.00 | 39 | 1016.6 |
| 20260503215610 | 26 | 172 | 6.4 | 16.1 | 0.00 | 0.00 | 0.00 | 39 | 1016.6 |
| 20260503215510 | 26 | 125 | 6.4 | 16.1 | 0.00 | 0.00 | 0.00 | 39 | 1016.6 |
| 20260503215410 | 27 | 125 | 4.8 | 16.1 | 0.00 | 0.00 | 0.00 | 39 | 1016.5 |
| 20260503215309 | 27 | 114 | 6.4 | 16.1 | 0.00 | 0.00 | 0.00 | 39 | 1016.6 |
| 20260503215209 | 27 | 178 | 8.0 | 16.1 | 0.00 | 0.00 | 0.00 | 39 | 1016.6 |
| 20260503215112 | 26 | 203 | 4.8 | 16.1 | 0.00 | 0.00 | 0.00 | 39 | 1016.5 |
| 20260503215010 | 26 | 124 | 3.2 | 11.3 | 0.00 | 0.00 | 0.00 | 39 | 1016.6 |
| 20260503214908 | 26 | 121 | 3.2 | 11.3 | 0.00 | 0.00 | 0.00 | 39 | 1016.6 |
| 20260503214811 | 26 | 39 | 3.2 | 11.3 | 0.00 | 0.00 | 0.00 | 39 | 1016.6 |
| 20260503214709 | 26 | 39 | 4.8 | 11.3 | 0.00 | 0.00 | 0.00 | 39 | 1016.6 |
| 20260503214609 | 26 | 32 | 4.8 | 11.3 | 0.00 | 0.00 | 0.00 | 40 | 1016.6 |
| 20260503214510 | 26 | 51 | 6.4 | 11.3 | 0.00 | 0.00 | 0.00 | 39 | 1016.6 |
| 20260503214410 | 26 | 51 | 8.0 | 11.3 | 0.00 | 0.00 | 0.00 | 40 | 1016.7 |
| 20260503214308 | 26 | 42 | 8.0 | 16.1 | 0.00 | 0.00 | 0.00 | 40 | 1016.7 |
| 20260503214209 | 25 | 96 | 6.4 | 17.7 | 0.00 | 0.00 | 0.00 | 40 | 1016.8 |
| 20260503214110 | 25 | 52 | 8.0 | 17.7 | 0.00 | 0.00 | 0.00 | 41 | 1016.8 |
| 20260503214010 | 25 | 44 | 6.4 | 17.7 | 0.00 | 0.00 | 0.00 | 40 | 1016.8 |
| 20260503213910 | 25 | 35 | 1.6 | 17.7 | 0.00 | 0.00 | 0.00 | 39 | 1016.9 |
| 20260503213810 | 25 | 14 | 3.2 | 17.7 | 0.00 | 0.00 | 0.00 | 39 | 1016.9 |
| 20260503213711 | 25 | 14 | 6.4 | 17.7 | 0.00 | 0.00 | 0.00 | 39 | 1016.9 |
| 20260503213608 | 25 | 16 | 8.0 | 17.7 | 0.00 | 0.00 | 0.00 | 39 | 1016.9 |
| 20260503213508 | 26 | 45 | 9.7 | 17.7 | 0.00 | 0.00 | 0.00 | 40 | 1017.0 |
| 20260503213411 | 26 | 65 | 12.9 | 17.7 | 0.00 | 0.00 | 0.00 | 40 | 1017.0 |
| 20260503213309 | 26 | 54 | 11.3 | 17.7 | 0.00 | 0.00 | 0.00 | 41 | 1017.0 |
| 20260503213209 | 26 | 45 | 9.7 | 16.1 | 0.00 | 0.00 | 0.00 | 40 | 1017.1 |
| 20260503213108 | 26 | 44 | 9.7 | 14.5 | 0.00 | 0.00 | 0.00 | 40 | 1017.1 |
| 20260503213010 | 26 | 86 | 8.0 | 14.5 | 0.00 | 0.00 | 0.00 | 40 | 1017.2 |
| 20260503212908 | 26 | 58 | 8.0 | 14.5 | 0.00 | 0.00 | 0.00 | 40 | 1017.2 |
| 20260503212808 | 26 | 52 | 8.0 | 14.5 | 0.00 | 0.00 | 0.00 | 39 | 1017.1 |
| 20260503212710 | 26 | 56 | 8.0 | 14.5 | 0.00 | 0.00 | 0.00 | 39 | 1017.1 |
| 20260503212609 | 26 | 55 | 6.4 | 14.5 | 0.00 | 0.00 | 0.00 | 39 | 1017.1 |
| 20260503212510 | 26 | 45 | 8.0 | 14.5 | 0.00 | 0.00 | 0.00 | 38 | 1017.1 |
| 20260503212409 | 26 | 32 | 6.4 | 16.1 | 0.00 | 0.00 | 0.00 | 38 | 1017.1 |
| 20260503212310 | 26 | 41 | 6.4 | 20.9 | 0.00 | 0.00 | 0.00 | 40 | 1017.2 |
| 20260503212209 | 26 | 85 | 9.7 | 20.9 | 0.00 | 0.00 | 0.00 | 39 | 1017.2 |
| 20260503212108 | 26 | 97 | 8.0 | 20.9 | 0.00 | 0.00 | 0.00 | 40 | 1017.2 |
| 20260503212009 | 26 | 89 | 4.8 | 20.9 | 0.00 | 0.00 | 0.00 | 39 | 1017.2 |
| 20260503211908 | 26 | 93 | 6.4 | 20.9 | 0.00 | 0.00 | 0.00 | 39 | 1017.2 |
| 20260503211808 | 26 | 72 | 6.4 | 20.9 | 0.00 | 0.00 | 0.00 | 39 | 1017.3 |
| 20260503211710 | 26 | 73 | 8.0 | 20.9 | 0.00 | 0.00 | 0.00 | 39 | 1017.2 |
| 20260503211609 | 26 | 80 | 9.7 | 20.9 | 0.00 | 0.00 | 0.00 | 38 | 1017.3 |
| 20260503211508 | 26 | 90 | 14.5 | 20.9 | 0.00 | 0.00 | 0.00 | 38 | 1017.3 |
| 20260503211408 | 26 | 89 | 14.5 | 20.9 | 0.00 | 0.00 | 0.00 | 39 | 1017.3 |
| 20260503211310 | 26 | 93 | 11.3 | 20.9 | 0.00 | 0.00 | 0.00 | 39 | 1017.3 |
| 20260503211208 | 26 | 56 | 11.3 | 20.9 | 0.00 | 0.00 | 0.00 | 39 | 1017.2 |
| 20260503211108 | 26 | 39 | 11.3 | 20.9 | 0.00 | 0.00 | 0.00 | 39 | 1017.3 |
| 20260503211009 | 26 | 103 | 11.3 | 17.7 | 0.00 | 0.00 | 0.00 | 39 | 1017.3 |
| 20260503210909 | 26 | 89 | 6.4 | 17.7 | 0.00 | 0.00 | 0.00 | 40 | 1017.2 |
| 20260503210809 | 26 | 62 | 4.8 | 17.7 | 0.00 | 0.00 | 0.00 | 40 | 1017.3 |
| 20260503210707 | 26 | 118 | 4.8 | 17.7 | 0.00 | 0.00 | 0.00 | 39 | 1017.3 |
| 20260503210606 | 26 | 61 | 4.8 | 17.7 | 0.00 | 0.00 | 0.00 | 39 | 1017.4 |
| 20260503210503 | 26 | 82 | 6.4 | 17.7 | 0.00 | 0.00 | 0.00 | 39 | 1017.3 |
| 20260503210403 | 26 | 103 | 9.7 | 17.7 | 0.00 | 0.00 | 0.00 | 39 | 1017.3 |
| 20260503210304 | 26 | 109 | 11.3 | 17.7 | 0.00 | 0.00 | 0.00 | 37 | 1017.4 |
| 20260503210204 | 27 | 110 | 11.3 | 17.7 | 0.00 | 0.00 | 0.00 | 38 | 1017.4 |
| 20260503210103 | 27 | 83 | 9.7 | 11.3 | 0.00 | 0.00 | 0.00 | 38 | 1017.4 |
| 20260503210003 | 27 | 90 | 6.4 | 9.7 | 0.00 | 0.00 | 0.00 | 37 | 1017.4 |
| 20260503205903 | 27 | 54 | 3.2 | 8.0 | 0.00 | 0.00 | 0.00 | 38 | 1017.4 |
| 20260503205802 | 27 | 69 | 3.2 | 14.5 | 0.00 | 0.00 | 0.00 | 37 | 1017.4 |
| 20260503205703 | 27 | 32 | 4.8 | 14.5 | 0.00 | 0.00 | 0.00 | 37 | 1017.5 |
| 20260503205603 | 27 | 49 | 3.2 | 14.5 | 0.00 | 0.00 | 0.00 | 37 | 1017.3 |
| 20260503205504 | 27 | 71 | 0.0 | 14.5 | 0.00 | 0.00 | 0.00 | 37 | 1017.4 |
| 20260503205402 | 26 | 275 | 1.6 | 14.5 | 0.00 | 0.00 | 0.00 | 37 | 1017.4 |
| 20260503205304 | 27 | 230 | 3.2 | 14.5 | 0.00 | 0.00 | 0.00 | 36 | 1017.5 |
| 20260503205204 | 27 | 123 | 3.2 | 14.5 | 0.00 | 0.00 | 0.00 | 36 | 1017.5 |
| 20260503205102 | 27 | 162 | 4.8 | 14.5 | 0.00 | 0.00 | 0.00 | 36 | 1017.5 |
| 20260503205005 | 27 | 195 | 6.4 | 14.5 | 0.00 | 0.00 | 0.00 | 36 | 1017.5 |
| 20260503204902 | 27 | 202 | 4.8 | 14.5 | 0.00 | 0.00 | 0.00 | 36 | 1017.6 |
| 20260503204803 | 27 | 176 | 1.6 | 11.3 | 0.00 | 0.00 | 0.00 | 37 | 1017.6 |
| 20260503204702 | 27 | 104 | 0.0 | 11.3 | 0.00 | 0.00 | 0.00 | 38 | 1017.7 |
| 20260503204602 | 27 | 183 | 0.0 | 11.3 | 0.00 | 0.00 | 0.00 | 38 | 1017.6 |
| 20260503204504 | 26 | 185 | 1.6 | 11.3 | 0.00 | 0.00 | 0.00 | 37 | 1017.6 |
| 20260503204402 | 26 | 185 | 4.8 | 11.3 | 0.00 | 0.00 | 0.00 | 37 | 1017.7 |
| 20260503204302 | 26 | 281 | 6.4 | 14.5 | 0.00 | 0.00 | 0.00 | 38 | 1017.7 |
| 20260503204204 | 26 | 244 | 6.4 | 16.1 | 0.00 | 0.00 | 0.00 | 38 | 1017.6 |
| 20260503204103 | 26 | 244 | 6.4 | 20.9 | 0.00 | 0.00 | 0.00 | 38 | 1017.7 |
| 20260503204003 | 27 | 216 | 6.4 | 20.9 | 0.00 | 0.00 | 0.00 | 37 | 1017.7 |
| 20260503203901 | 27 | 182 | 6.4 | 20.9 | 0.00 | 0.00 | 0.00 | 38 | 1017.7 |
| 20260503203802 | 27 | 188 | 4.8 | 20.9 | 0.00 | 0.00 | 0.00 | 38 | 1017.8 |
| 20260503203702 | 27 | 223 | 4.8 | 20.9 | 0.00 | 0.00 | 0.00 | 38 | 1017.8 |
| 20260503203602 | 27 | 127 | 6.4 | 20.9 | 0.00 | 0.00 | 0.00 | 38 | 1017.8 |
| 20260503203504 | 27 | 223 | 8.0 | 20.9 | 0.00 | 0.00 | 0.00 | 38 | 1017.9 |
| 20260503203403 | 27 | 133 | 9.7 | 20.9 | 0.00 | 0.00 | 0.00 | 37 | 1017.9 |
| 20260503203302 | 27 | 195 | 9.7 | 20.9 | 0.00 | 0.00 | 0.00 | 38 | 1017.8 |
| 20260503203203 | 27 | 134 | 6.4 | 20.9 | 0.00 | 0.00 | 0.00 | 39 | 1017.8 |
| 20260503203103 | 26 | 117 | 4.8 | 17.7 | 0.00 | 0.00 | 0.00 | 39 | 1017.8 |
| 20260503203002 | 27 | 109 | 4.8 | 17.7 | 0.00 | 0.00 | 0.00 | 37 | 1017.9 |
| 20260503202902 | 27 | 127 | 6.4 | 19.3 | 0.00 | 0.00 | 0.00 | 39 | 1017.9 |
| 20260503202803 | 27 | 133 | 6.4 | 19.3 | 0.00 | 0.00 | 0.00 | 38 | 1017.9 |
| 20260503202702 | 27 | 94 | 4.8 | 19.3 | 0.00 | 0.00 | 0.00 | 39 | 1018.0 |
| 20260503202602 | 27 | 92 | 6.4 | 19.3 | 0.00 | 0.00 | 0.00 | 38 | 1018.0 |
| 20260503202503 | 27 | 58 | 9.7 | 19.3 | 0.00 | 0.00 | 0.00 | 38 | 1017.9 |
| 20260503202402 | 26 | 51 | 12.9 | 19.3 | 0.00 | 0.00 | 0.00 | 38 | 1018.0 |
| 20260503202304 | 26 | 73 | 11.3 | 19.3 | 0.00 | 0.00 | 0.00 | 39 | 1018.0 |
| 20260503202202 | 27 | 111 | 11.3 | 19.3 | 0.00 | 0.00 | 0.00 | 38 | 1018.0 |
| 20260503202103 | 27 | 102 | 12.9 | 19.3 | 0.00 | 0.00 | 0.00 | 38 | 1018.0 |
| 20260503202001 | 27 | 123 | 6.4 | 19.3 | 0.00 | 0.00 | 0.00 | 39 | 1018.0 |
| 20260503201902 | 27 | 78 | 1.6 | 9.7 | 0.00 | 0.00 | 0.00 | 37 | 1018.0 |
| 20260503201803 | 26 | 145 | 1.6 | 14.5 | 0.00 | 0.00 | 0.00 | 37 | 1018.0 |
| 20260503201703 | 26 | 326 | 3.2 | 14.5 | 0.00 | 0.00 | 0.00 | 37 | 1018.0 |
| 20260503201603 | 26 | 300 | 1.6 | 14.5 | 0.00 | 0.00 | 0.00 | 37 | 1018.1 |
| 20260503201504 | 26 | 72 | 1.6 | 14.5 | 0.00 | 0.00 | 0.00 | 37 | 1018.1 |
| 20260503201402 | 26 | 103 | 4.8 | 14.5 | 0.00 | 0.00 | 0.00 | 38 | 1018.2 |
| 20260503201302 | 26 | 103 | 6.4 | 16.1 | 0.00 | 0.00 | 0.00 | 39 | 1018.2 |
| 20260503201202 | 26 | 113 | 3.2 | 16.1 | 0.00 | 0.00 | 0.00 | 38 | 1018.2 |
| 20260503201103 | 26 | 79 | 3.2 | 16.1 | 0.00 | 0.00 | 0.00 | 38 | 1018.3 |
| 20260503201003 | 26 | 97 | 6.4 | 16.1 | 0.00 | 0.00 | 0.00 | 38 | 1018.3 |
| 20260503200902 | 26 | 96 | 8.0 | 17.7 | 0.00 | 0.00 | 0.00 | 37 | 1018.3 |
| 20260503200803 | 26 | 94 | 3.2 | 17.7 | 0.00 | 0.00 | 0.00 | 38 | 1018.3 |
| 20260503200702 | 26 | 103 | 1.6 | 20.9 | 0.00 | 0.00 | 0.00 | 38 | 1018.3 |
| 20260503200602 | 26 | 244 | 4.8 | 20.9 | 0.00 | 0.00 | 0.00 | 39 | 1018.4 |
| 20260503200502 | 26 | 103 | 8.0 | 20.9 | 0.00 | 0.00 | 0.00 | 40 | 1018.4 |
| 20260503200404 | 26 | 102 | 8.0 | 20.9 | 0.00 | 0.00 | 0.00 | 39 | 1018.4 |
| 20260503200302 | 26 | 96 | 6.4 | 24.1 | 0.00 | 0.00 | 0.00 | 40 | 1018.4 |
| 20260503200203 | 26 | 107 | 8.0 | 24.1 | 0.00 | 0.00 | 0.00 | 39 | 1018.5 |
| 20260503200003 | 26 | 110 | 12.9 | 24.1 | 0.00 | 0.00 | 0.00 | 39 | 1018.4 |
| 20260503195902 | 26 | 99 | 14.5 | 24.1 | 0.00 | 0.00 | 0.00 | 38 | 1018.4 |
| 20260503195802 | 26 | 113 | 12.9 | 24.1 | 0.00 | 0.00 | 0.00 | 38 | 1018.4 |
| 20260503195702 | 26 | 104 | 9.7 | 24.1 | 0.00 | 0.00 | 0.00 | 40 | 1018.5 |
| 20260503195602 | 26 | 118 | 9.7 | 24.1 | 0.00 | 0.00 | 0.00 | 39 | 1018.5 |
| 20260503195502 | 26 | 90 | 11.3 | 24.1 | 0.00 | 0.00 | 0.00 | 37 | 1018.5 |
| 20260503195403 | 27 | 102 | 14.5 | 24.1 | 0.00 | 0.00 | 0.00 | 38 | 1018.5 |
| 20260503195304 | 27 | 99 | 11.3 | 24.1 | 0.00 | 0.00 | 0.00 | 38 | 1018.6 |
| 20260503195202 | 27 | 96 | 9.7 | 17.7 | 0.00 | 0.00 | 0.00 | 39 | 1018.5 |
| 20260503195103 | 27 | 99 | 8.0 | 16.1 | 0.00 | 0.00 | 0.00 | 38 | 1018.5 |
| 20260503195005 | 27 | 65 | 6.4 | 16.1 | 0.00 | 0.00 | 0.00 | 39 | 1018.5 |
| 20260503194902 | 27 | 100 | 4.8 | 16.1 | 0.00 | 0.00 | 0.00 | 38 | 1018.5 |
| 20260503194802 | 27 | 155 | 3.2 | 16.1 | 0.00 | 0.00 | 0.00 | 37 | 1018.5 |
| 20260503194703 | 27 | 209 | 3.2 | 16.1 | 0.00 | 0.00 | 0.00 | 40 | 1018.5 |
| 20260503194602 | 27 | 100 | 3.2 | 16.1 | 0.00 | 0.00 | 0.00 | 38 | 1018.6 |
| 20260503194503 | 27 | 97 | 6.4 | 16.1 | 0.00 | 0.00 | 0.00 | 37 | 1018.6 |
| 20260503194403 | 27 | 135 | 6.4 | 16.1 | 0.00 | 0.00 | 0.00 | 38 | 1018.6 |
| 20260503194302 | 27 | 149 | 4.8 | 16.1 | 0.00 | 0.00 | 0.00 | 39 | 1018.6 |
| 20260503194202 | 27 | 144 | 3.2 | 14.5 | 0.00 | 0.00 | 0.00 | 38 | 1018.6 |
| 20260503194102 | 27 | 99 | 4.8 | 14.5 | 0.00 | 0.00 | 0.00 | 38 | 1018.6 |
| 20260503194004 | 27 | 113 | 4.8 | 14.5 | 0.00 | 0.00 | 0.00 | 37 | 1018.6 |
| 20260503193901 | 27 | 133 | 4.8 | 14.5 | 0.00 | 0.00 | 0.00 | 37 | 1018.6 |
| 20260503193802 | 27 | 28 | 6.4 | 16.1 | 0.00 | 0.00 | 0.00 | 38 | 1018.6 |
| 20260503193703 | 27 | 49 | 8.0 | 16.1 | 0.00 | 0.00 | 0.00 | 37 | 1018.8 |
| 20260503193602 | 27 | 97 | 8.0 | 16.1 | 0.00 | 0.00 | 0.00 | 38 | 1018.8 |
| 20260503193504 | 27 | 93 | 6.4 | 16.1 | 0.00 | 0.00 | 0.00 | 39 | 1018.8 |
| 20260503193403 | 27 | 90 | 6.4 | 16.1 | 0.00 | 0.00 | 0.00 | 39 | 1018.7 |
| 20260503193302 | 27 | 93 | 4.8 | 19.3 | 0.00 | 0.00 | 0.00 | 38 | 1018.8 |
| 20260503193202 | 27 | 158 | 6.4 | 19.3 | 0.00 | 0.00 | 0.00 | 37 | 1018.7 |
| 20260503193102 | 27 | 138 | 4.8 | 19.3 | 0.00 | 0.00 | 0.00 | 38 | 1018.8 |
| 20260503193002 | 27 | 131 | 6.4 | 19.3 | 0.00 | 0.00 | 0.00 | 38 | 1018.8 |
| 20260503192902 | 26 | 87 | 6.4 | 19.3 | 0.00 | 0.00 | 0.00 | 38 | 1018.8 |
| 20260503192802 | 26 | 213 | 4.8 | 19.3 | 0.00 | 0.00 | 0.00 | 37 | 1018.8 |
| 20260503192704 | 27 | 45 | 4.8 | 19.3 | 0.00 | 0.00 | 0.00 | 37 | 1018.9 |
| 20260503192602 | 26 | 73 | 8.0 | 19.3 | 0.00 | 0.00 | 0.00 | 38 | 1018.9 |
| 20260503192502 | 26 | 71 | 12.9 | 19.3 | 0.00 | 0.00 | 0.00 | 37 | 1019.0 |
| 20260503192403 | 27 | 78 | 12.9 | 19.3 | 0.00 | 0.00 | 0.00 | 37 | 1019.0 |
| 20260503192305 | 27 | 80 | 11.3 | 16.1 | 0.00 | 0.00 | 0.00 | 36 | 1019.0 |
| 20260503192202 | 27 | 89 | 9.7 | 16.1 | 0.00 | 0.00 | 0.00 | 38 | 1019.0 |
| 20260503192102 | 27 | 162 | 6.4 | 14.5 | 0.00 | 0.00 | 0.00 | 39 | 1019.0 |
| 20260503192004 | 27 | 185 | 3.2 | 14.5 | 0.00 | 0.00 | 0.00 | 37 | 1018.9 |
| 20260503191902 | 27 | 49 | 1.6 | 14.5 | 0.00 | 0.00 | 0.00 | 37 | 1019.0 |
| 20260503191802 | 27 | 78 | 4.8 | 16.1 | 0.00 | 0.00 | 0.00 | 37 | 1019.0 |
| 20260503191702 | 27 | 166 | 3.2 | 16.1 | 0.00 | 0.00 | 0.00 | 38 | 1019.0 |
| 20260503191603 | 27 | 189 | 1.6 | 16.1 | 0.00 | 0.00 | 0.00 | 37 | 1019.0 |
| 20260503191503 | 26 | 75 | 3.2 | 16.1 | 0.00 | 0.00 | 0.00 | 38 | 1019.1 |
| 20260503191402 | 26 | 13 | 6.4 | 16.1 | 0.00 | 0.00 | 0.00 | 37 | 1019.1 |
| 20260503191303 | 26 | 23 | 8.0 | 16.1 | 0.00 | 0.00 | 0.00 | 37 | 1019.1 |
| 20260503191203 | 26 | 35 | 8.0 | 16.1 | 0.00 | 0.00 | 0.00 | 37 | 1019.2 |
| 20260503191101 | 27 | 44 | 8.0 | 17.7 | 0.00 | 0.00 | 0.00 | 36 | 1019.2 |
| 20260503191004 | 27 | 52 | 9.7 | 17.7 | 0.00 | 0.00 | 0.00 | 36 | 1019.1 |
| 20260503190904 | 27 | 89 | 9.7 | 17.7 | 0.00 | 0.00 | 0.00 | 37 | 1019.2 |
| 20260503190803 | 27 | 87 | 4.8 | 17.7 | 0.00 | 0.00 | 0.00 | 37 | 1019.2 |
| 20260503190701 | 27 | 161 | 4.8 | 17.7 | 0.00 | 0.00 | 0.00 | 37 | 1019.2 |
| 20260503190601 | 26 | 16 | 6.4 | 17.7 | 0.00 | 0.00 | 0.00 | 37 | 1019.2 |
| 20260503190502 | 26 | 78 | 8.0 | 17.7 | 0.00 | 0.00 | 0.00 | 37 | 1019.2 |
| 20260503190403 | 26 | 102 | 9.7 | 17.7 | 0.00 | 0.00 | 0.00 | 36 | 1019.2 |
| 20260503190303 | 27 | 83 | 11.3 | 17.7 | 0.00 | 0.00 | 0.00 | 37 | 1019.2 |
| 20260503190203 | 27 | 82 | 11.3 | 17.7 | 0.00 | 0.00 | 0.00 | 37 | 1019.2 |
| 20260503190004 | 27 | 110 | 4.8 | 14.5 | 0.00 | 0.00 | 0.00 | 38 | 1019.1 |
| 20260503185903 | 27 | 62 | 3.2 | 14.5 | 0.00 | 0.00 | 0.00 | 37 | 1019.2 |
| 20260503185802 | 27 | 111 | 1.6 | 14.5 | 0.00 | 0.00 | 0.00 | 37 | 1019.2 |
| 20260503185702 | 26 | 125 | 4.8 | 14.5 | 0.00 | 0.00 | 0.00 | 37 | 1019.2 |
| 20260503185603 | 26 | 97 | 9.7 | 14.5 | 0.00 | 0.00 | 0.00 | 37 | 1019.3 |
| 20260503185502 | 27 | 63 | 9.7 | 14.5 | 0.00 | 0.00 | 0.00 | 38 | 1019.2 |
| 20260503185402 | 26 | 93 | 6.4 | 11.3 | 0.00 | 0.00 | 0.00 | 38 | 1019.2 |
| 20260503185304 | 26 | 31 | 6.4 | 11.3 | 0.00 | 0.00 | 0.00 | 39 | 1019.3 |
| 20260503185203 | 26 | 96 | 8.0 | 11.3 | 0.00 | 0.00 | 0.00 | 38 | 1019.3 |
| 20260503185103 | 26 | 93 | 9.7 | 11.3 | 0.00 | 0.00 | 0.00 | 38 | 1019.2 |
| 20260503185003 | 26 | 117 | 8.0 | 11.3 | 0.00 | 0.00 | 0.00 | 38 | 1019.3 |
| 20260503184903 | 27 | 120 | 8.0 | 11.3 | 0.00 | 0.00 | 0.00 | 39 | 1019.3 |
| 20260503184802 | 27 | 213 | 4.8 | 11.3 | 0.00 | 0.00 | 0.00 | 38 | 1019.3 |
| 20260503184703 | 26 | 250 | 3.2 | 11.3 | 0.00 | 0.00 | 0.00 | 39 | 1019.3 |
| 20260503184558 | 26 | 262 | 6.4 | 11.3 | 0.00 | 0.00 | 0.00 | 38 | 1019.3 |
| 20260503184457 | 26 | 316 | 8.0 | 14.5 | 0.00 | 0.00 | 0.00 | 37 | 1019.3 |
| 20260503184355 | 26 | 240 | 6.4 | 14.5 | 0.00 | 0.00 | 0.00 | 37 | 1019.3 |
| 20260503184256 | 26 | 285 | 4.8 | 14.5 | 0.00 | 0.00 | 0.00 | 37 | 1019.4 |
| 20260503184152 | 26 | 245 | 4.8 | 14.5 | 0.00 | 0.00 | 0.00 | 37 | 1019.4 |
| 20260503184051 | 26 | 224 | 4.8 | 14.5 | 0.00 | 0.00 | 0.00 | 38 | 1019.4 |
| 20260503183950 | 26 | 245 | 3.2 | 17.7 | 0.00 | 0.00 | 0.00 | 38 | 1019.4 |
| 20260503183848 | 26 | 303 | 4.8 | 17.7 | 0.00 | 0.00 | 0.00 | 37 | 1019.5 |
| 20260503183745 | 26 | 303 | 6.4 | 17.7 | 0.00 | 0.00 | 0.00 | 37 | 1019.5 |
| 20260503183645 | 26 | 298 | 6.4 | 20.9 | 0.00 | 0.00 | 0.00 | 36 | 1019.5 |
| 20260503183543 | 27 | 265 | 3.2 | 20.9 | 0.00 | 0.00 | 0.00 | 36 | 1019.6 |
| 20260503183442 | 26 | 47 | 4.8 | 20.9 | 0.00 | 0.00 | 0.00 | 37 | 1019.5 |
| 20260503183342 | 26 | 48 | 6.4 | 20.9 | 0.00 | 0.00 | 0.00 | 38 | 1019.6 |
| 20260503183240 | 26 | 82 | 6.4 | 24.1 | 0.00 | 0.00 | 0.00 | 38 | 1019.6 |
| 20260503183139 | 26 | 100 | 9.7 | 24.1 | 0.00 | 0.00 | 0.00 | 38 | 1019.5 |
| 20260503183036 | 26 | 83 | 11.3 | 24.1 | 0.00 | 0.00 | 0.00 | 37 | 1019.6 |
| 20260503182935 | 26 | 92 | 11.3 | 24.1 | 0.00 | 0.00 | 0.00 | 37 | 1019.6 |
| 20260503182833 | 26 | 123 | 14.5 | 24.1 | 0.00 | 0.00 | 0.00 | 37 | 1019.7 |
| 20260503182732 | 26 | 104 | 12.9 | 24.1 | 0.00 | 0.00 | 0.00 | 37 | 1019.7 |
| 20260503182630 | 27 | 106 | 12.9 | 24.1 | 0.00 | 0.00 | 0.00 | 38 | 1019.7 |
| 20260503182531 | 27 | 90 | 14.5 | 24.1 | 0.00 | 0.00 | 0.00 | 36 | 1019.7 |
| 20260503182433 | 27 | 82 | 16.1 | 24.1 | 0.00 | 0.00 | 0.00 | 37 | 1019.7 |
| 20260503182331 | 27 | 93 | 12.9 | 24.1 | 0.00 | 0.00 | 0.00 | 38 | 1019.7 |
| 20260503182230 | 27 | 78 | 9.7 | 17.7 | 0.00 | 0.00 | 0.00 | 37 | 1019.6 |
| 20260503182132 | 27 | 85 | 9.7 | 16.1 | 0.00 | 0.00 | 0.00 | 37 | 1019.7 |
| 20260503182032 | 27 | 90 | 6.4 | 11.3 | 0.00 | 0.00 | 0.00 | 39 | 1019.8 |
| 20260503181930 | 26 | 31 | 4.8 | 11.3 | 0.00 | 0.00 | 0.00 | 38 | 1019.8 |
| 20260503181828 | 26 | 61 | 4.8 | 11.3 | 0.00 | 0.00 | 0.00 | 37 | 1019.7 |
| 20260503181728 | 26 | 31 | 3.2 | 11.3 | 0.00 | 0.00 | 0.00 | 37 | 1019.8 |
| 20260503181624 | 26 | 63 | 3.2 | 16.1 | 0.00 | 0.00 | 0.00 | 37 | 1019.8 |
| 20260503181525 | 26 | 59 | 6.4 | 19.3 | 0.00 | 0.00 | 0.00 | 37 | 1019.8 |
| 20260503181422 | 26 | 68 | 8.0 | 19.3 | 0.00 | 0.00 | 0.00 | 37 | 1019.8 |
| 20260503181321 | 26 | 96 | 4.8 | 19.3 | 0.00 | 0.00 | 0.00 | 38 | 1019.9 |
| 20260503181221 | 26 | 255 | 1.6 | 19.3 | 0.00 | 0.00 | 0.00 | 38 | 1019.8 |
| 20260503181117 | 26 | 230 | 0.0 | 19.3 | 0.00 | 0.00 | 0.00 | 37 | 1019.9 |
| 20260503181017 | 26 | 234 | 0.0 | 19.3 | 0.00 | 0.00 | 0.00 | 36 | 1019.9 |
| 20260503180914 | 26 | 214 | 4.8 | 19.3 | 0.00 | 0.00 | 0.00 | 37 | 1019.9 |
| 20260503180813 | 26 | 83 | 6.4 | 19.3 | 0.00 | 0.00 | 0.00 | 37 | 1019.9 |
| 20260503180712 | 26 | 90 | 9.7 | 19.3 | 0.00 | 0.00 | 0.00 | 37 | 1019.9 |
| 20260503180610 | 26 | 0 | 9.7 | 19.3 | 0.00 | 0.00 | 0.00 | 38 | 1020.0 |
| 20260503180510 | 26 | 109 | 8.0 | 16.1 | 0.00 | 0.00 | 0.00 | 37 | 1019.9 |
| 20260503180409 | 26 | 85 | 11.3 | 16.1 | 0.00 | 0.00 | 0.00 | 37 | 1019.9 |
| 20260503180308 | 26 | 96 | 8.0 | 16.1 | 0.00 | 0.00 | 0.00 | 39 | 1020.0 |
| 20260503180205 | 26 | 31 | 4.8 | 14.5 | 0.00 | 0.00 | 0.00 | 37 | 1019.9 |
| 20260503180107 | 26 | 80 | 8.0 | 14.5 | 0.00 | 0.00 | 0.00 | 37 | 1020.0 |
| 20260503180004 | 26 | 109 | 9.7 | 14.5 | 0.00 | 0.00 | 0.00 | 37 | 1020.0 |
| 20260503175906 | 26 | 94 | 6.4 | 14.5 | 0.00 | 0.00 | 0.00 | 37 | 1020.1 |
| 20260503175805 | 26 | 117 | 3.2 | 11.3 | 0.00 | 0.00 | 0.00 | 38 | 1020.1 |
| 20260503175703 | 26 | 145 | 3.2 | 9.7 | 0.00 | 0.00 | 0.00 | 37 | 1020.0 |
| 20260503175605 | 26 | 128 | 4.8 | 9.7 | 0.00 | 0.00 | 0.00 | 39 | 1020.1 |
| 20260503175504 | 26 | 131 | 3.2 | 9.7 | 0.00 | 0.00 | 0.00 | 37 | 1020.1 |
| 20260503175404 | 26 | 110 | 4.8 | 9.7 | 0.00 | 0.00 | 0.00 | 38 | 1020.2 |
| 20260503175304 | 26 | 89 | 3.2 | 9.7 | 0.00 | 0.00 | 0.00 | 37 | 1020.2 |
| 20260503175205 | 26 | 66 | 3.2 | 9.7 | 0.00 | 0.00 | 0.00 | 37 | 1020.2 |
| 20260503175105 | 26 | 66 | 3.2 | 11.3 | 0.00 | 0.00 | 0.00 | 37 | 1020.2 |
| 20260503175004 | 26 | 66 | 4.8 | 11.3 | 0.00 | 0.00 | 0.00 | 37 | 1020.2 |
| 20260503174904 | 26 | 66 | 6.4 | 11.3 | 0.00 | 0.00 | 0.00 | 37 | 1020.3 |
| 20260503174804 | 26 | 85 | 6.4 | 11.3 | 0.00 | 0.00 | 0.00 | 37 | 1020.3 |
| 20260503174704 | 26 | 93 | 6.4 | 16.1 | 0.00 | 0.00 | 0.00 | 37 | 1020.4 |
| 20260503174604 | 26 | 82 | 4.8 | 16.1 | 0.00 | 0.00 | 0.00 | 38 | 1020.4 |
| 20260503174505 | 26 | 168 | 4.8 | 16.1 | 0.00 | 0.00 | 0.00 | 38 | 1020.4 |
| 20260503174404 | 26 | 168 | 4.8 | 16.1 | 0.00 | 0.00 | 0.00 | 38 | 1020.3 |
| 20260503174304 | 26 | 114 | 6.4 | 16.1 | 0.00 | 0.00 | 0.00 | 40 | 1020.5 |
| 20260503174204 | 26 | 128 | 9.7 | 16.1 | 0.00 | 0.00 | 0.00 | 39 | 1020.4 |
| 20260503174105 | 26 | 87 | 9.7 | 16.1 | 0.00 | 0.00 | 0.00 | 37 | 1020.5 |
| 20260503174003 | 26 | 89 | 8.0 | 16.1 | 0.00 | 0.00 | 0.00 | 39 | 1020.5 |
| 20260503173904 | 26 | 182 | 8.0 | 16.1 | 0.00 | 0.00 | 0.00 | 39 | 1020.5 |
| 20260503173803 | 26 | 186 | 6.4 | 16.1 | 0.00 | 0.00 | 0.00 | 40 | 1020.6 |
| 20260503173704 | 26 | 183 | 6.4 | 11.3 | 0.00 | 0.00 | 0.00 | 40 | 1020.6 |
| 20260503173603 | 25 | 190 | 4.8 | 11.3 | 0.00 | 0.00 | 0.00 | 40 | 1020.6 |
| 20260503173505 | 25 | 103 | 3.2 | 11.3 | 0.00 | 0.00 | 0.00 | 39 | 1020.6 |
| 20260503173404 | 26 | 238 | 3.2 | 11.3 | 0.00 | 0.00 | 0.00 | 39 | 1020.6 |
| 20260503173304 | 26 | 221 | 4.8 | 11.3 | 0.00 | 0.00 | 0.00 | 40 | 1020.6 |
| 20260503173204 | 26 | 107 | 6.4 | 11.3 | 0.00 | 0.00 | 0.00 | 39 | 1020.6 |
| 20260503173104 | 26 | 185 | 4.8 | 11.3 | 0.00 | 0.00 | 0.00 | 40 | 1020.6 |
| 20260503173004 | 26 | 210 | 3.2 | 11.3 | 0.00 | 0.00 | 0.00 | 40 | 1020.7 |
| 20260503172903 | 26 | 28 | 3.2 | 11.3 | 0.00 | 0.00 | 0.00 | 39 | 1020.7 |
| 20260503172804 | 26 | 28 | 3.2 | 11.3 | 0.00 | 0.00 | 0.00 | 39 | 1020.8 |
| 20260503172704 | 26 | 16 | 3.2 | 11.3 | 0.00 | 0.00 | 0.00 | 39 | 1020.7 |
| 20260503172604 | 26 | 66 | 3.2 | 11.3 | 0.00 | 0.00 | 0.00 | 39 | 1020.7 |
| 20260503172503 | 26 | 72 | 6.4 | 14.5 | 0.00 | 0.00 | 0.00 | 39 | 1020.8 |
| 20260503172404 | 26 | 113 | 6.4 | 14.5 | 0.00 | 0.00 | 0.00 | 40 | 1020.8 |
| 20260503172305 | 26 | 85 | 3.2 | 14.5 | 0.00 | 0.00 | 0.00 | 42 | 1020.8 |
| 20260503172202 | 26 | 144 | 3.2 | 14.5 | 0.00 | 0.00 | 0.00 | 42 | 1020.8 |
| 20260503172101 | 25 | 193 | 4.8 | 16.1 | 0.00 | 0.00 | 0.00 | 41 | 1020.8 |
| 20260503172003 | 25 | 207 | 4.8 | 16.1 | 0.00 | 0.00 | 0.00 | 41 | 1020.9 |
| 20260503171901 | 25 | 106 | 4.8 | 16.1 | 0.00 | 0.00 | 0.00 | 40 | 1020.9 |
| 20260503171800 | 25 | 89 | 6.4 | 16.1 | 0.00 | 0.00 | 0.00 | 40 | 1020.9 |
| 20260503171658 | 26 | 120 | 9.7 | 16.1 | 0.00 | 0.00 | 0.00 | 40 | 1020.9 |
| 20260503171553 | 26 | 114 | 11.3 | 16.1 | 0.00 | 0.00 | 0.00 | 40 | 1021.0 |
| 20260503171453 | 26 | 118 | 9.7 | 16.1 | 0.00 | 0.00 | 0.00 | 40 | 1020.9 |
| 20260503171354 | 26 | 113 | 8.0 | 16.1 | 0.00 | 0.00 | 0.00 | 42 | 1020.9 |
| 20260503171252 | 26 | 168 | 9.7 | 16.1 | 0.00 | 0.00 | 0.00 | 41 | 1020.8 |
| 20260503171151 | 26 | 144 | 9.7 | 16.1 | 0.00 | 0.00 | 0.00 | 42 | 1020.8 |
| 20260503171048 | 26 | 186 | 6.4 | 16.1 | 0.00 | 0.00 | 0.00 | 42 | 1020.9 |
| 20260503170946 | 26 | 62 | 4.8 | 16.1 | 0.00 | 0.00 | 0.00 | 41 | 1020.8 |
| 20260503170846 | 26 | 121 | 8.0 | 16.1 | 0.00 | 0.00 | 0.00 | 41 | 1020.9 |
| 20260503170744 | 26 | 117 | 6.4 | 16.1 | 0.00 | 0.00 | 0.00 | 40 | 1020.8 |
| 20260503170643 | 26 | 80 | 4.8 | 9.7 | 0.00 | 0.00 | 0.00 | 41 | 1020.8 |
| 20260503170541 | 26 | 82 | 3.2 | 6.4 | 0.00 | 0.00 | 0.00 | 42 | 1020.8 |
| 20260503170440 | 26 | 247 | 3.2 | 6.4 | 0.00 | 0.00 | 0.00 | 41 | 1020.9 |
| 20260503170339 | 26 | 219 | 1.6 | 8.0 | 0.00 | 0.00 | 0.00 | 40 | 1020.8 |
| 20260503170238 | 26 | 11 | 0.0 | 8.0 | 0.00 | 0.00 | 0.00 | 39 | 1020.9 |
| 20260503170136 | 26 | 11 | 0.0 | 8.0 | 0.00 | 0.00 | 0.00 | 40 | 1020.9 |
| 20260503160159 | 25 | 96 | 1.6 | 14.5 | 0.00 | 0.00 | 0.00 | 42 | 1021.1 |
| 20260503151009 | 23 | 207 | 6.4 | 16.1 | 0.00 | 0.00 | 0.00 | 52 | 1020.9 |
| 20260503150906 | 23 | 189 | 6.4 | 16.1 | 0.00 | 0.00 | 0.00 | 52 | 1020.9 |
| 20260503150804 | 23 | 199 | 8.0 | 16.1 | 0.00 | 0.00 | 0.00 | 51 | 1020.9 |
| 20260503150703 | 23 | 182 | 6.4 | 17.7 | 0.00 | 0.00 | 0.00 | 54 | 1020.9 |
| 20260503150603 | 23 | 154 | 3.2 | 17.7 | 0.00 | 0.00 | 0.00 | 55 | 1020.8 |
| 20260503150502 | 23 | 169 | 4.8 | 17.7 | 0.00 | 0.00 | 0.00 | 54 | 1020.8 |
| 20260503150403 | 23 | 203 | 6.4 | 17.7 | 0.00 | 0.00 | 0.00 | 53 | 1020.8 |
| 20260503150303 | 23 | 145 | 8.0 | 17.7 | 0.00 | 0.00 | 0.00 | 53 | 1020.8 |
| 20260503150202 | 23 | 189 | 4.8 | 17.7 | 0.00 | 0.00 | 0.00 | 55 | 1020.8 |
| 20260503140302 | 20 | 56 | 0.0 | 4.8 | 0.00 | 0.00 | 0.00 | 70 | 1020.7 |
| 20260503140200 | 20 | 51 | 0.0 | 3.2 | 0.00 | 0.00 | 0.00 | 71 | 1020.7 |
| 20260503131358 | 17 | 13 | 0.0 | 4.8 | 0.00 | 0.00 | 0.00 | 83 | 1020.5 |
| 20260503131258 | 17 | 13 | 0.0 | 4.8 | 0.00 | 0.00 | 0.00 | 83 | 1020.5 |
| 20260503131157 | 17 | 13 | 0.0 | 4.8 | 0.00 | 0.00 | 0.00 | 84 | 1020.4 |
| 20260503131058 | 17 | 13 | 1.6 | 4.8 | 0.00 | 0.00 | 0.00 | 84 | 1020.5 |
| 20260503130958 | 17 | 13 | 1.6 | 4.8 | 0.00 | 0.00 | 0.00 | 85 | 1020.4 |
| 20260503130859 | 17 | 13 | 1.6 | 4.8 | 0.00 | 0.00 | 0.00 | 85 | 1020.4 |
| 20260503130758 | 16 | 13 | 1.6 | 4.8 | 0.00 | 0.00 | 0.00 | 85 | 1020.4 |
| 20260503130658 | 16 | 13 | 1.6 | 4.8 | 0.00 | 0.00 | 0.00 | 85 | 1020.5 |
| 20260503130557 | 16 | 13 | 3.2 | 4.8 | 0.00 | 0.00 | 0.00 | 86 | 1020.4 |
| 20260503130458 | 16 | 13 | 3.2 | 4.8 | 0.00 | 0.00 | 0.00 | 86 | 1020.3 |
| 20260503130359 | 16 | 13 | 3.2 | 4.8 | 0.00 | 0.00 | 0.00 | 87 | 1020.4 |
| 20260503130258 | 16 | 13 | 1.6 | 4.8 | 0.00 | 0.00 | 0.00 | 87 | 1020.4 |
| 20260503130157 | 16 | 13 | 1.6 | 4.8 | 0.00 | 0.00 | 0.00 | 87 | 1020.3 |
| 20260503120157 | 13 | 13 | 0.0 | 0.0 | 0.00 | 0.00 | 0.00 | 93 | 1019.9 |
| 20260503110754 | 13 | 11 | 0.0 | 3.2 | 0.00 | 0.00 | 0.00 | 92 | 1019.4 |
| 20260503110654 | 13 | 11 | 0.0 | 3.2 | 0.00 | 0.00 | 0.00 | 92 | 1019.4 |
| 20260503110556 | 13 | 11 | 0.0 | 3.2 | 0.00 | 0.00 | 0.00 | 92 | 1019.5 |
| 20260503110456 | 13 | 11 | 1.6 | 3.2 | 0.00 | 0.00 | 0.00 | 92 | 1019.5 |
| 20260503110355 | 13 | 11 | 1.6 | 3.2 | 0.00 | 0.00 | 0.00 | 92 | 1019.4 |
| 20260503110255 | 13 | 11 | 1.6 | 3.2 | 0.00 | 0.00 | 0.00 | 92 | 1019.5 |
| 20260503110154 | 13 | 7 | 0.0 | 0.0 | 0.00 | 0.00 | 0.00 | 92 | 1019.5 |
| 20260503100257 | 13 | 7 | 0.0 | 0.0 | 0.00 | 0.00 | 0.00 | 91 | 1019.1 |
| 20260503100156 | 13 | 7 | 0.0 | 0.0 | 0.00 | 0.00 | 0.00 | 91 | 1019.0 |
| 20260503090454 | 13 | 8 | 0.0 | 0.0 | 0.00 | 0.00 | 0.00 | 89 | 1018.8 |
| 20260503090352 | 13 | 7 | 0.0 | 0.0 | 0.00 | 0.00 | 0.00 | 89 | 1018.9 |
| 20260503090251 | 13 | 7 | 0.0 | 0.0 | 0.00 | 0.00 | 0.00 | 89 | 1018.9 |
| 20260503090152 | 13 | 7 | 0.0 | 0.0 | 0.00 | 0.00 | 0.00 | 90 | 1018.9 |
| 20260503081550 | 14 | 7 | 0.0 | 0.0 | 0.00 | 0.00 | 0.00 | 87 | 1018.9 |
| 20260503081450 | 15 | 7 | 0.0 | 0.0 | 0.00 | 0.00 | 0.00 | 87 | 1019.1 |
| 20260503081350 | 15 | 7 | 0.0 | 0.0 | 0.00 | 0.00 | 0.00 | 88 | 1019.1 |
| 20260503081252 | 15 | 7 | 0.0 | 0.0 | 0.00 | 0.00 | 0.00 | 87 | 1019.0 |
| 20260503081151 | 15 | 7 | 0.0 | 0.0 | 0.00 | 0.00 | 0.00 | 87 | 1019.1 |
| 20260503081050 | 15 | 7 | 0.0 | 0.0 | 0.00 | 0.00 | 0.00 | 87 | 1019.1 |
| 20260503080951 | 15 | 7 | 0.0 | 0.0 | 0.00 | 0.00 | 0.00 | 87 | 1019.1 |
| 20260503080852 | 15 | 7 | 0.0 | 0.0 | 0.00 | 0.00 | 0.00 | 87 | 1019.1 |
| 20260503080750 | 15 | 7 | 0.0 | 0.0 | 0.00 | 0.00 | 0.00 | 87 | 1019.1 |
| 20260503080651 | 15 | 7 | 0.0 | 0.0 | 0.00 | 0.00 | 0.00 | 86 | 1019.1 |
| 20260503080551 | 15 | 7 | 0.0 | 0.0 | 0.00 | 0.00 | 0.00 | 87 | 1019.0 |
| 20260503080451 | 15 | 7 | 0.0 | 0.0 | 0.00 | 0.00 | 0.00 | 87 | 1019.0 |
| 20260503080350 | 15 | 7 | 0.0 | 0.0 | 0.00 | 0.00 | 0.00 | 87 | 1019.0 |
| 20260503080250 | 15 | 7 | 0.0 | 0.0 | 0.00 | 0.00 | 0.00 | 87 | 1019.0 |
| 20260503080150 | 15 | 7 | 0.0 | 0.0 | 0.00 | 0.00 | 0.00 | 87 | 1019.0 |
| 20260503072924 | 15 | 7 | 0.0 | 0.0 | 0.00 | 0.00 | 0.00 | 84 | 1018.9 |
| 20260503072823 | 15 | 7 | 0.0 | 0.0 | 0.00 | 0.00 | 0.00 | 84 | 1018.9 |
| 20260503072720 | 15 | 7 | 0.0 | 0.0 | 0.00 | 0.00 | 0.00 | 84 | 1018.9 |
| 20260503072617 | 15 | 7 | 0.0 | 0.0 | 0.00 | 0.00 | 0.00 | 84 | 1018.8 |
| 20260503072516 | 15 | 7 | 0.0 | 0.0 | 0.00 | 0.00 | 0.00 | 85 | 1018.9 |
| 20260503072414 | 15 | 7 | 0.0 | 0.0 | 0.00 | 0.00 | 0.00 | 84 | 1018.9 |
| 20260503072314 | 15 | 7 | 0.0 | 0.0 | 0.00 | 0.00 | 0.00 | 84 | 1018.9 |
| 20260503072212 | 15 | 7 | 0.0 | 0.0 | 0.00 | 0.00 | 0.00 | 84 | 1018.9 |
| 20260503072111 | 15 | 7 | 0.0 | 0.0 | 0.00 | 0.00 | 0.00 | 85 | 1019.0 |
| 20260503072010 | 15 | 7 | 0.0 | 0.0 | 0.00 | 0.00 | 0.00 | 85 | 1019.0 |
| 20260503071909 | 15 | 7 | 0.0 | 0.0 | 0.00 | 0.00 | 0.00 | 85 | 1018.9 |
| 20260503071806 | 15 | 7 | 0.0 | 0.0 | 0.00 | 0.00 | 0.00 | 85 | 1018.9 |
| 20260503071702 | 15 | 7 | 0.0 | 0.0 | 0.00 | 0.00 | 0.00 | 85 | 1018.9 |
| 20260503071605 | 15 | 7 | 0.0 | 0.0 | 0.00 | 0.00 | 0.00 | 85 | 1019.0 |
| 20260503071505 | 15 | 7 | 0.0 | 0.0 | 0.00 | 0.00 | 0.00 | 86 | 1019.0 |
| 20260503071402 | 15 | 7 | 0.0 | 0.0 | 0.00 | 0.00 | 0.00 | 86 | 1019.0 |
| 20260503071303 | 15 | 7 | 0.0 | 0.0 | 0.00 | 0.00 | 0.00 | 86 | 1018.9 |
| 20260503071204 | 15 | 7 | 0.0 | 0.0 | 0.00 | 0.00 | 0.00 | 86 | 1019.0 |
| 20260503071102 | 15 | 7 | 0.0 | 0.0 | 0.00 | 0.00 | 0.00 | 85 | 1019.0 |
| 20260503071002 | 15 | 7 | 0.0 | 0.0 | 0.00 | 0.00 | 0.00 | 85 | 1019.0 |
| 20260503070904 | 15 | 7 | 0.0 | 0.0 | 0.00 | 0.00 | 0.00 | 85 | 1019.0 |
| 20260503070802 | 15 | 7 | 0.0 | 0.0 | 0.00 | 0.00 | 0.00 | 86 | 1019.0 |
| 20260503070702 | 15 | 7 | 0.0 | 0.0 | 0.00 | 0.00 | 0.00 | 86 | 1019.0 |
| 20260503070604 | 15 | 7 | 0.0 | 0.0 | 0.00 | 0.00 | 0.00 | 86 | 1019.1 |
| 20260503070504 | 15 | 7 | 0.0 | 0.0 | 0.00 | 0.00 | 0.00 | 86 | 1019.0 |
| 20260503070402 | 15 | 7 | 0.0 | 0.0 | 0.00 | 0.00 | 0.00 | 86 | 1019.1 |
| 20260503070302 | 15 | 7 | 0.0 | 0.0 | 0.00 | 0.00 | 0.00 | 86 | 1019.1 |
| 20260503070204 | 15 | 7 | 0.0 | 0.0 | 0.00 | 0.00 | 0.00 | 86 | 1019.0 |
| 20260503060303 | 15 | 8 | 0.0 | 0.0 | 0.00 | 0.00 | 0.00 | 84 | 1019.1 |
| 20260503060204 | 15 | 8 | 0.0 | 0.0 | 0.00 | 0.00 | 0.00 | 84 | 1019.1 |
| 20260503055102 | 15 | 8 | 0.0 | 3.2 | 0.00 | 0.00 | 0.00 | 84 | 1019.3 |
| 20260503055004 | 15 | 8 | 0.0 | 3.2 | 0.00 | 0.00 | 0.00 | 84 | 1019.3 |
| 20260503054902 | 16 | 8 | 0.0 | 3.2 | 0.00 | 0.00 | 0.00 | 84 | 1019.3 |
| 20260503054802 | 16 | 8 | 1.6 | 3.2 | 0.00 | 0.00 | 0.00 | 84 | 1019.3 |
| 20260503054703 | 16 | 8 | 1.6 | 3.2 | 0.00 | 0.00 | 0.00 | 84 | 1019.2 |
| 20260503054602 | 16 | 8 | 1.6 | 3.2 | 0.00 | 0.00 | 0.00 | 83 | 1019.2 |
| 20260503054502 | 16 | 8 | 1.6 | 3.2 | 0.00 | 0.00 | 0.00 | 84 | 1019.2 |
| 20260503054403 | 16 | 8 | 3.2 | 3.2 | 0.00 | 0.00 | 0.00 | 83 | 1019.2 |
| 20260503054303 | 16 | 8 | 1.6 | 3.2 | 0.00 | 0.00 | 0.00 | 84 | 1019.1 |
| 20260503054202 | 16 | 8 | 1.6 | 3.2 | 0.00 | 0.00 | 0.00 | 84 | 1019.2 |
| 20260503054103 | 16 | 8 | 1.6 | 3.2 | 0.00 | 0.00 | 0.00 | 84 | 1019.1 |
| 20260503054005 | 16 | 8 | 3.2 | 3.2 | 0.00 | 0.00 | 0.00 | 83 | 1019.0 |
| 20260503053902 | 16 | 8 | 1.6 | 3.2 | 0.00 | 0.00 | 0.00 | 83 | 1019.1 |
| 20260503053804 | 16 | 8 | 0.0 | 0.0 | 0.00 | 0.00 | 0.00 | 83 | 1019.0 |
| 20260503053704 | 16 | 8 | 0.0 | 0.0 | 0.00 | 0.00 | 0.00 | 83 | 1019.0 |
| 20260503053603 | 16 | 8 | 0.0 | 0.0 | 0.00 | 0.00 | 0.00 | 84 | 1019.0 |
| 20260503053503 | 16 | 8 | 0.0 | 0.0 | 0.00 | 0.00 | 0.00 | 84 | 1018.9 |
| 20260503053403 | 16 | 8 | 0.0 | 0.0 | 0.00 | 0.00 | 0.00 | 83 | 1019.0 |
| 20260503053303 | 16 | 8 | 0.0 | 0.0 | 0.00 | 0.00 | 0.00 | 84 | 1019.0 |
| 20260503053202 | 16 | 8 | 0.0 | 0.0 | 0.00 | 0.00 | 0.00 | 84 | 1018.9 |
| 20260503053102 | 16 | 8 | 0.0 | 0.0 | 0.00 | 0.00 | 0.00 | 84 | 1018.9 |
| 20260503053003 | 16 | 8 | 0.0 | 1.6 | 0.00 | 0.00 | 0.00 | 84 | 1018.9 |
| 20260503052902 | 16 | 8 | 0.0 | 1.6 | 0.00 | 0.00 | 0.00 | 84 | 1018.9 |
| 20260503052802 | 16 | 8 | 0.0 | 3.2 | 0.00 | 0.00 | 0.00 | 84 | 1018.9 |
| 20260503052702 | 16 | 8 | 0.0 | 3.2 | 0.00 | 0.00 | 0.00 | 84 | 1018.9 |
| 20260503052602 | 16 | 8 | 0.0 | 3.2 | 0.00 | 0.00 | 0.00 | 84 | 1018.9 |
| 20260503052502 | 16 | 8 | 0.0 | 3.2 | 0.00 | 0.00 | 0.00 | 84 | 1018.9 |
| 20260503052403 | 16 | 8 | 0.0 | 3.2 | 0.00 | 0.00 | 0.00 | 84 | 1019.0 |
| 20260503052305 | 16 | 8 | 0.0 | 3.2 | 0.00 | 0.00 | 0.00 | 84 | 1019.0 |
| 20260503052203 | 16 | 8 | 0.0 | 3.2 | 0.00 | 0.00 | 0.00 | 84 | 1019.0 |
| 20260503052102 | 16 | 8 | 1.6 | 3.2 | 0.00 | 0.00 | 0.00 | 84 | 1019.0 |
| 20260503052002 | 16 | 8 | 1.6 | 3.2 | 0.00 | 0.00 | 0.00 | 84 | 1019.0 |
| 20260503051904 | 16 | 8 | 3.2 | 3.2 | 0.00 | 0.00 | 0.00 | 84 | 1019.0 |
| 20260503051802 | 16 | 8 | 1.6 | 3.2 | 0.00 | 0.00 | 0.00 | 84 | 1019.0 |
| 20260503051702 | 16 | 8 | 1.6 | 3.2 | 0.00 | 0.00 | 0.00 | 83 | 1018.9 |
| 20260503051603 | 16 | 8 | 1.6 | 3.2 | 0.00 | 0.00 | 0.00 | 83 | 1019.0 |
| 20260503051502 | 16 | 8 | 1.6 | 3.2 | 0.00 | 0.00 | 0.00 | 83 | 1019.0 |
| 20260503051403 | 16 | 8 | 1.6 | 3.2 | 0.00 | 0.00 | 0.00 | 83 | 1019.0 |
| 20260503051302 | 16 | 8 | 1.6 | 3.2 | 0.00 | 0.00 | 0.00 | 83 | 1019.0 |
| 20260503051203 | 16 | 8 | 0.0 | 0.0 | 0.00 | 0.00 | 0.00 | 82 | 1019.0 |
| 20260503051103 | 16 | 8 | 0.0 | 0.0 | 0.00 | 0.00 | 0.00 | 82 | 1019.0 |
| 20260503050948 | 16 | 8 | 0.0 | 0.0 | 0.00 | 0.00 | 0.00 | 82 | 1019.0 |
| 20260503050847 | 16 | 8 | 0.0 | 0.0 | 0.00 | 0.00 | 0.00 | 82 | 1019.1 |
| 20260503050746 | 16 | 8 | 0.0 | 0.0 | 0.00 | 0.00 | 0.00 | 82 | 1018.9 |
| 20260503050646 | 16 | 8 | 0.0 | 0.0 | 0.00 | 0.00 | 0.00 | 81 | 1018.9 |
| 20260503050548 | 16 | 8 | 0.0 | 0.0 | 0.00 | 0.00 | 0.00 | 82 | 1018.9 |
| 20260503050448 | 16 | 8 | 0.0 | 0.0 | 0.00 | 0.00 | 0.00 | 82 | 1018.9 |
| 20260503050346 | 16 | 8 | 0.0 | 0.0 | 0.00 | 0.00 | 0.00 | 82 | 1018.9 |
| 20260503050246 | 16 | 8 | 0.0 | 0.0 | 0.00 | 0.00 | 0.00 | 81 | 1018.9 |
| 20260503050148 | 16 | 8 | 0.0 | 0.0 | 0.00 | 0.00 | 0.00 | 81 | 1018.9 |
| 20260503050046 | 16 | 8 | 0.0 | 0.0 | 0.00 | 0.00 | 0.00 | 81 | 1018.9 |
| 20260503045946 | 16 | 8 | 0.0 | 0.0 | 0.00 | 0.00 | 0.00 | 81 | 1018.8 |
| 20260503045847 | 16 | 8 | 0.0 | 0.0 | 0.00 | 0.00 | 0.00 | 81 | 1018.9 |
| 20260503045747 | 16 | 8 | 0.0 | 0.0 | 0.00 | 0.00 | 0.00 | 81 | 1018.9 |
| 20260503045647 | 16 | 8 | 0.0 | 0.0 | 0.00 | 0.00 | 0.00 | 81 | 1018.9 |
| 20260503045546 | 16 | 8 | 0.0 | 0.0 | 0.00 | 0.00 | 0.00 | 81 | 1018.9 |
| 20260503045444 | 16 | 8 | 0.0 | 0.0 | 0.00 | 0.00 | 0.00 | 80 | 1018.8 |
| 20260503045341 | 16 | 8 | 0.0 | 0.0 | 0.00 | 0.00 | 0.00 | 80 | 1018.9 |
| 20260503045239 | 16 | 8 | 0.0 | 0.0 | 0.00 | 0.00 | 0.00 | 80 | 1018.8 |
| 20260503045137 | 16 | 8 | 0.0 | 0.0 | 0.00 | 0.00 | 0.00 | 80 | 1018.8 |
| 20260503045037 | 16 | 8 | 0.0 | 0.0 | 0.00 | 0.00 | 0.00 | 80 | 1018.8 |
| 20260503044934 | 16 | 8 | 0.0 | 0.0 | 0.00 | 0.00 | 0.00 | 79 | 1018.7 |
| 20260503044833 | 16 | 8 | 0.0 | 0.0 | 0.00 | 0.00 | 0.00 | 79 | 1018.8 |
| 20260503044732 | 16 | 8 | 0.0 | 0.0 | 0.00 | 0.00 | 0.00 | 79 | 1018.7 |
| 20260503044631 | 16 | 8 | 0.0 | 0.0 | 0.00 | 0.00 | 0.00 | 78 | 1018.7 |
| 20260503044532 | 16 | 8 | 0.0 | 0.0 | 0.00 | 0.00 | 0.00 | 78 | 1018.8 |
| 20260503044431 | 16 | 8 | 0.0 | 0.0 | 0.00 | 0.00 | 0.00 | 78 | 1018.7 |
| 20260503044332 | 16 | 8 | 0.0 | 0.0 | 0.00 | 0.00 | 0.00 | 78 | 1018.7 |
| 20260503044231 | 16 | 8 | 0.0 | 0.0 | 0.00 | 0.00 | 0.00 | 79 | 1018.7 |
| 20260503044133 | 16 | 8 | 0.0 | 0.0 | 0.00 | 0.00 | 0.00 | 79 | 1018.7 |
| 20260503044033 | 16 | 8 | 0.0 | 0.0 | 0.00 | 0.00 | 0.00 | 79 | 1018.7 |
| 20260503043930 | 16 | 8 | 0.0 | 0.0 | 0.00 | 0.00 | 0.00 | 78 | 1018.7 |
| 20260503043831 | 16 | 8 | 0.0 | 0.0 | 0.00 | 0.00 | 0.00 | 78 | 1018.7 |
| 20260503043731 | 16 | 8 | 0.0 | 0.0 | 0.00 | 0.00 | 0.00 | 78 | 1018.7 |
| 20260503043631 | 16 | 8 | 0.0 | 0.0 | 0.00 | 0.00 | 0.00 | 79 | 1018.6 |
| 20260503043531 | 16 | 8 | 0.0 | 0.0 | 0.00 | 0.00 | 0.00 | 78 | 1018.6 |
| 20260503043432 | 16 | 8 | 0.0 | 0.0 | 0.00 | 0.00 | 0.00 | 78 | 1018.6 |
| 20260503043331 | 16 | 8 | 0.0 | 0.0 | 0.00 | 0.00 | 0.00 | 78 | 1018.6 |
| 20260503043231 | 16 | 8 | 0.0 | 0.0 | 0.00 | 0.00 | 0.00 | 78 | 1018.6 |
| 20260503043133 | 16 | 8 | 0.0 | 0.0 | 0.00 | 0.00 | 0.00 | 78 | 1018.7 |
| 20260503043031 | 16 | 8 | 0.0 | 1.6 | 0.00 | 0.00 | 0.00 | 77 | 1018.7 |
| 20260503042931 | 16 | 8 | 0.0 | 1.6 | 0.00 | 0.00 | 0.00 | 77 | 1018.7 |
| 20260503042830 | 17 | 8 | 0.0 | 1.6 | 0.00 | 0.00 | 0.00 | 76 | 1018.6 |
| 20260503042732 | 17 | 8 | 0.0 | 1.6 | 0.00 | 0.00 | 0.00 | 76 | 1018.7 |
| 20260503042631 | 17 | 8 | 0.0 | 1.6 | 0.00 | 0.00 | 0.00 | 75 | 1018.6 |
| 20260503042531 | 17 | 8 | 0.0 | 1.6 | 0.00 | 0.00 | 0.00 | 75 | 1018.7 |
| 20260503042433 | 17 | 8 | 0.0 | 1.6 | 0.00 | 0.00 | 0.00 | 74 | 1018.7 |
| 20260503042332 | 17 | 8 | 0.0 | 1.6 | 0.00 | 0.00 | 0.00 | 74 | 1018.7 |
| 20260503042232 | 17 | 8 | 0.0 | 1.6 | 0.00 | 0.00 | 0.00 | 73 | 1018.7 |
| 20260503042132 | 17 | 8 | 0.0 | 1.6 | 0.00 | 0.00 | 0.00 | 72 | 1018.7 |
| 20260503042032 | 17 | 8 | 0.0 | 0.0 | 0.00 | 0.00 | 0.00 | 73 | 1018.7 |
| 20260503041929 | 17 | 8 | 0.0 | 0.0 | 0.00 | 0.00 | 0.00 | 73 | 1018.7 |
| 20260503041828 | 17 | 8 | 0.0 | 0.0 | 0.00 | 0.00 | 0.00 | 73 | 1018.8 |
| 20260503041727 | 17 | 8 | 0.0 | 0.0 | 0.00 | 0.00 | 0.00 | 74 | 1018.8 |
| 20260503041626 | 17 | 8 | 0.0 | 0.0 | 0.00 | 0.00 | 0.00 | 74 | 1018.8 |
| 20260503041524 | 17 | 8 | 0.0 | 0.0 | 0.00 | 0.00 | 0.00 | 74 | 1018.8 |
| 20260503041422 | 17 | 8 | 0.0 | 0.0 | 0.00 | 0.00 | 0.00 | 75 | 1018.8 |
| 20260503041321 | 17 | 8 | 0.0 | 0.0 | 0.00 | 0.00 | 0.00 | 75 | 1018.8 |
| 20260503041220 | 17 | 8 | 0.0 | 0.0 | 0.00 | 0.00 | 0.00 | 76 | 1018.9 |
| 20260503041118 | 17 | 8 | 0.0 | 0.0 | 0.00 | 0.00 | 0.00 | 76 | 1018.8 |
| 20260503041017 | 17 | 8 | 0.0 | 0.0 | 0.00 | 0.00 | 0.00 | 76 | 1018.8 |
| 20260503040914 | 16 | 8 | 0.0 | 0.0 | 0.00 | 0.00 | 0.00 | 76 | 1018.9 |
| 20260503040814 | 17 | 8 | 0.0 | 0.0 | 0.00 | 0.00 | 0.00 | 76 | 1018.8 |
| 20260503040712 | 17 | 8 | 0.0 | 0.0 | 0.00 | 0.00 | 0.00 | 76 | 1018.8 |
| 20260503040610 | 17 | 8 | 0.0 | 0.0 | 0.00 | 0.00 | 0.00 | 76 | 1018.8 |
| 20260503040510 | 17 | 8 | 0.0 | 0.0 | 0.00 | 0.00 | 0.00 | 74 | 1018.9 |
| 20260503040403 | 17 | 8 | 0.0 | 0.0 | 0.00 | 0.00 | 0.00 | 73 | 1018.9 |
| 20260503040304 | 17 | 8 | 0.0 | 0.0 | 0.00 | 0.00 | 0.00 | 73 | 1018.8 |
| 20260503040203 | 17 | 8 | 0.0 | 0.0 | 0.00 | 0.00 | 0.00 | 73 | 1018.8 |
| 20260503040104 | 17 | 8 | 0.0 | 0.0 | 0.00 | 0.00 | 0.00 | 73 | 1018.7 |
| 20260503040004 | 17 | 8 | 0.0 | 0.0 | 0.00 | 0.00 | 0.00 | 73 | 1018.7 |
| 20260503035902 | 17 | 8 | 0.0 | 0.0 | 0.00 | 0.00 | 0.00 | 73 | 1018.7 |
| 20260503035803 | 17 | 8 | 0.0 | 0.0 | 0.00 | 0.00 | 0.00 | 72 | 1018.8 |
| 20260503035703 | 17 | 8 | 0.0 | 0.0 | 0.00 | 0.00 | 0.00 | 73 | 1018.7 |
| 20260503035603 | 17 | 8 | 0.0 | 0.0 | 0.00 | 0.00 | 0.00 | 72 | 1018.8 |
| 20260503035504 | 17 | 8 | 0.0 | 0.0 | 0.00 | 0.00 | 0.00 | 72 | 1018.7 |
| 20260503035405 | 17 | 8 | 0.0 | 0.0 | 0.00 | 0.00 | 0.00 | 72 | 1018.7 |
| 20260503035304 | 17 | 8 | 0.0 | 0.0 | 0.00 | 0.00 | 0.00 | 72 | 1018.7 |
| 20260503035202 | 17 | 8 | 0.0 | 0.0 | 0.00 | 0.00 | 0.00 | 72 | 1018.7 |
| 20260503035103 | 17 | 8 | 0.0 | 0.0 | 0.00 | 0.00 | 0.00 | 73 | 1018.6 |
| 20260503035003 | 17 | 8 | 0.0 | 0.0 | 0.00 | 0.00 | 0.00 | 73 | 1018.5 |
| 20260503034903 | 17 | 8 | 0.0 | 0.0 | 0.00 | 0.00 | 0.00 | 73 | 1018.6 |
| 20260503034804 | 17 | 8 | 0.0 | 0.0 | 0.00 | 0.00 | 0.00 | 73 | 1018.6 |
| 20260503034702 | 17 | 8 | 0.0 | 0.0 | 0.00 | 0.00 | 0.00 | 73 | 1018.5 |
| 20260503034602 | 17 | 8 | 0.0 | 0.0 | 0.00 | 0.00 | 0.00 | 73 | 1018.4 |
| 20260503034501 | 17 | 8 | 0.0 | 0.0 | 0.00 | 0.00 | 0.00 | 74 | 1018.5 |
| 20260503034403 | 17 | 8 | 0.0 | 0.0 | 0.00 | 0.00 | 0.00 | 74 | 1018.4 |
| 20260503034302 | 17 | 8 | 0.0 | 0.0 | 0.00 | 0.00 | 0.00 | 75 | 1018.4 |
| 20260503034203 | 17 | 8 | 0.0 | 1.6 | 0.00 | 0.00 | 0.00 | 76 | 1018.4 |
| 20260503034103 | 17 | 8 | 0.0 | 3.2 | 0.00 | 0.00 | 0.00 | 75 | 1018.4 |
| 20260503034004 | 17 | 8 | 0.0 | 3.2 | 0.00 | 0.00 | 0.00 | 75 | 1018.4 |
| 20260503033902 | 17 | 8 | 0.0 | 3.2 | 0.00 | 0.00 | 0.00 | 75 | 1018.4 |
| 20260503033802 | 17 | 8 | 0.0 | 3.2 | 0.00 | 0.00 | 0.00 | 75 | 1018.3 |
| 20260503033702 | 17 | 8 | 0.0 | 3.2 | 0.00 | 0.00 | 0.00 | 75 | 1018.4 |
| 20260503033603 | 17 | 8 | 0.0 | 3.2 | 0.00 | 0.00 | 0.00 | 76 | 1018.4 |
| 20260503033502 | 17 | 8 | 0.0 | 3.2 | 0.00 | 0.00 | 0.00 | 76 | 1018.4 |
| 20260503033402 | 17 | 8 | 0.0 | 3.2 | 0.00 | 0.00 | 0.00 | 75 | 1018.3 |
| 20260503033302 | 17 | 8 | 0.0 | 3.2 | 0.00 | 0.00 | 0.00 | 75 | 1018.3 |
| 20260503033202 | 17 | 8 | 1.6 | 3.2 | 0.00 | 0.00 | 0.00 | 75 | 1018.3 |
| 20260503033102 | 17 | 8 | 1.6 | 3.2 | 0.00 | 0.00 | 0.00 | 76 | 1018.2 |
| 20260503033004 | 17 | 8 | 1.6 | 3.2 | 0.00 | 0.00 | 0.00 | 76 | 1018.2 |
| 20260503032902 | 17 | 8 | 1.6 | 3.2 | 0.00 | 0.00 | 0.00 | 76 | 1018.2 |
| 20260503032802 | 17 | 8 | 1.6 | 3.2 | 0.00 | 0.00 | 0.00 | 76 | 1018.2 |
| 20260503032704 | 17 | 8 | 1.6 | 3.2 | 0.00 | 0.00 | 0.00 | 76 | 1018.2 |
| 20260503032603 | 17 | 8 | 3.2 | 3.2 | 0.00 | 0.00 | 0.00 | 76 | 1018.2 |
| 20260503032503 | 17 | 8 | 3.2 | 3.2 | 0.00 | 0.00 | 0.00 | 76 | 1018.2 |
| 20260503032403 | 17 | 8 | 3.2 | 3.2 | 0.00 | 0.00 | 0.00 | 75 | 1018.2 |
| 20260503032304 | 17 | 8 | 3.2 | 3.2 | 0.00 | 0.00 | 0.00 | 75 | 1018.1 |
| 20260503032202 | 17 | 8 | 1.6 | 3.2 | 0.00 | 0.00 | 0.00 | 75 | 1018.2 |
| 20260503032102 | 17 | 8 | 1.6 | 3.2 | 0.00 | 0.00 | 0.00 | 75 | 1018.2 |
| 20260503032004 | 17 | 8 | 3.2 | 3.2 | 0.00 | 0.00 | 0.00 | 75 | 1018.1 |
| 20260503031903 | 17 | 8 | 1.6 | 3.2 | 0.00 | 0.00 | 0.00 | 75 | 1018.2 |
| 20260503031803 | 17 | 8 | 0.0 | 3.2 | 0.00 | 0.00 | 0.00 | 75 | 1018.2 |
| 20260503031703 | 17 | 8 | 0.0 | 0.0 | 0.00 | 0.00 | 0.00 | 75 | 1018.2 |
| 20260503031603 | 17 | 8 | 0.0 | 0.0 | 0.00 | 0.00 | 0.00 | 75 | 1018.2 |
| 20260503031503 | 17 | 8 | 0.0 | 0.0 | 0.00 | 0.00 | 0.00 | 74 | 1018.1 |
| 20260503031402 | 17 | 8 | 0.0 | 0.0 | 0.00 | 0.00 | 0.00 | 74 | 1018.1 |
| 20260503031304 | 17 | 8 | 0.0 | 0.0 | 0.00 | 0.00 | 0.00 | 74 | 1018.1 |
| 20260503031159 | 17 | 8 | 0.0 | 0.0 | 0.00 | 0.00 | 0.00 | 74 | 1018.2 |
| 20260503031059 | 17 | 8 | 0.0 | 0.0 | 0.00 | 0.00 | 0.00 | 74 | 1018.1 |
| 20260503030957 | 17 | 8 | 0.0 | 1.6 | 0.00 | 0.00 | 0.00 | 74 | 1018.1 |
| 20260503030858 | 17 | 8 | 0.0 | 3.2 | 0.00 | 0.00 | 0.00 | 74 | 1018.1 |
| 20260503030755 | 17 | 8 | 0.0 | 3.2 | 0.00 | 0.00 | 0.00 | 74 | 1018.1 |
| 20260503030654 | 17 | 8 | 0.0 | 3.2 | 0.00 | 0.03 | 0.00 | 75 | 1018.1 |
| 20260503030553 | 17 | 8 | 0.0 | 3.2 | 0.00 | 0.03 | 0.00 | 75 | 1018.1 |
| 20260503030451 | 17 | 8 | 0.0 | 3.2 | 0.00 | 0.03 | 0.00 | 75 | 1018.1 |
| 20260503030349 | 17 | 8 | 0.0 | 3.2 | 0.00 | 0.03 | 0.00 | 75 | 1018.2 |
| 20260503030248 | 17 | 8 | 0.0 | 3.2 | 0.00 | 0.03 | 0.00 | 75 | 1018.2 |
| 20260503030147 | 17 | 8 | 0.0 | 3.2 | 0.00 | 0.03 | 0.00 | 74 | 1018.2 |
| 20260503030045 | 17 | 8 | 1.6 | 3.2 | 0.00 | 0.03 | 0.00 | 73 | 1018.2 |
| 20260503025944 | 17 | 8 | 1.6 | 3.2 | 0.00 | 0.03 | 0.00 | 73 | 1018.2 |
| 20260503025843 | 17 | 8 | 1.6 | 3.2 | 0.00 | 0.03 | 0.00 | 73 | 1018.2 |
| 20260503025815 | 17 | 7 | 1.6 | 3.2 | 0.00 | 0.03 | 0.00 | 73 | 1018.2 |
| 20260503025645 | 17 | 7 | 0.0 | 3.2 | 0.00 | 0.03 | 0.00 | 73 | 1018.2 |
| 20260503025545 | 17 | 7 | 0.0 | 3.2 | 0.00 | 0.03 | 0.00 | 73 | 1018.2 |
| 20260503025444 | 17 | 7 | 0.0 | 3.2 | 0.00 | 0.03 | 0.00 | 73 | 1018.1 |
| 20260503025344 | 17 | 7 | 0.0 | 3.2 | 0.00 | 0.03 | 0.00 | 73 | 1018.2 |
| 20260503025243 | 17 | 7 | 0.0 | 3.2 | 0.00 | 0.03 | 0.00 | 73 | 1018.1 |
| 20260503025143 | 17 | 7 | 0.0 | 3.2 | 0.00 | 0.03 | 0.00 | 73 | 1018.1 |
| 20260503025043 | 17 | 7 | 1.6 | 3.2 | 0.00 | 0.03 | 0.00 | 73 | 1018.1 |
| 20260503024945 | 17 | 7 | 1.6 | 3.2 | 0.00 | 0.03 | 0.00 | 73 | 1018.2 |
| 20260503024843 | 17 | 7 | 1.6 | 3.2 | 0.00 | 0.03 | 0.00 | 73 | 1018.1 |
| 20260503024744 | 17 | 7 | 1.6 | 3.2 | 0.00 | 0.03 | 0.00 | 73 | 1018.1 |
| 20260503024644 | 17 | 7 | 3.2 | 3.2 | 0.00 | 0.03 | 0.00 | 72 | 1018.1 |